Wetterdaten: Dienstag, 26.01.2016
Datum Zeit Temp. Aussen Temp. o. S. +5cm Feuchte Auss BlattFeu 1 Luftdruck Regen Sonnenschein Regendauer Solar Windben Empfang
26.01.2016 00:00 10,9 C 11,1 C 8,9 C 81 % 0 lf 1023,8 hPa 0,0 l/m 0 min 0 min 0 W/m 16,7 km/h (3 Bft) 91,84 %
26.01.2016 00:02 10,9 C 11,1 C 8,9 C 81 % 0 lf 1023,9 hPa 0,0 l/m 0 min 0 min 0 W/m 23,0 km/h (4 Bft) 100,00 %
26.01.2016 00:06 11,0 C 11,1 C 8,9 C 81 % 0 lf 1023,9 hPa 0,0 l/m 0 min 0 min 0 W/m 20,9 km/h (4 Bft) 97,65 %
26.01.2016 00:08 11,0 C 11,1 C 8,9 C 81 % 0 lf 1023,9 hPa 0,0 l/m 0 min 0 min 0 W/m 20,9 km/h (4 Bft) 97,87 %
26.01.2016 00:10 11,0 C 11,1 C 8,9 C 81 % 0 lf 1023,9 hPa 0,0 l/m 0 min 0 min 0 W/m 20,9 km/h (4 Bft) 92,73 %
26.01.2016 00:12 11,0 C 11,1 C 8,9 C 81 % 0 lf 1023,9 hPa 0,0 l/m 0 min 0 min 0 W/m 12,6 km/h (3 Bft) 95,65 %
26.01.2016 00:14 11,0 C 11,1 C 8,9 C 81 % 0 lf 1023,8 hPa 0,0 l/m 0 min 0 min 0 W/m 20,9 km/h (4 Bft) 97,87 %
26.01.2016 00:16 11,0 C 11,1 C 8,9 C 81 % 0 lf 1023,8 hPa 0,0 l/m 0 min 0 min 0 W/m 18,8 km/h (3 Bft) 94,00 %
26.01.2016 00:18 10,9 C 11,1 C 8,9 C 81 % 0 lf 1023,9 hPa 0,0 l/m 0 min 0 min 0 W/m 16,7 km/h (3 Bft) 93,62 %
26.01.2016 00:20 11,0 C 11,1 C 8,9 C 81 % 0 lf 1024,0 hPa 0,0 l/m 0 min 0 min 0 W/m 25,1 km/h (4 Bft) 95,74 %
26.01.2016 00:22 10,9 C 11,1 C 8,9 C 81 % 0 lf 1023,9 hPa 0,0 l/m 0 min 0 min 0 W/m 31,4 km/h (5 Bft) 97,83 %
26.01.2016 00:24 10,9 C 11,1 C 8,9 C 81 % 0 lf 1023,8 hPa 0,0 l/m 0 min 0 min 0 W/m 18,8 km/h (3 Bft) 97,87 %
26.01.2016 00:26 10,9 C 10,6 C 8,9 C 81 % 0 lf 1023,9 hPa 0,0 l/m 0 min 0 min 0 W/m 18,8 km/h (3 Bft) 97,22 %
26.01.2016 00:28 10,9 C 11,1 C 8,9 C 82 % 0 lf 1023,8 hPa 0,0 l/m 0 min 0 min 0 W/m 20,9 km/h (4 Bft) 97,87 %
26.01.2016 00:30 10,9 C 11,1 C 8,9 C 82 % 0 lf 1023,8 hPa 0,0 l/m 0 min 0 min 0 W/m 25,1 km/h (4 Bft) 97,87 %
26.01.2016 00:32 10,9 C 11,1 C 8,9 C 82 % 0 lf 1023,7 hPa 0,0 l/m 0 min 0 min 0 W/m 23,0 km/h (4 Bft) 95,74 %
26.01.2016 00:34 10,9 C 11,1 C 8,9 C 82 % 0 lf 1023,8 hPa 0,0 l/m 0 min 0 min 0 W/m 27,2 km/h (4 Bft) 93,62 %
26.01.2016 00:36 10,9 C 11,1 C 8,9 C 82 % 0 lf 1023,7 hPa 0,0 l/m 0 min 0 min 0 W/m 25,1 km/h (4 Bft) 95,65 %
26.01.2016 00:38 10,9 C 11,1 C 8,9 C 82 % 0 lf 1023,8 hPa 0,0 l/m 0 min 0 min 0 W/m 23,0 km/h (4 Bft) 93,62 %
26.01.2016 00:40 11,0 C 11,1 C 8,9 C 82 % 0 lf 1023,8 hPa 0,0 l/m 0 min 0 min 0 W/m 20,9 km/h (4 Bft) 93,62 %
26.01.2016 00:42 11,0 C 11,1 C 8,9 C 82 % 0 lf 1023,8 hPa 0,0 l/m 0 min 0 min 0 W/m 18,8 km/h (3 Bft) 95,74 %
26.01.2016 00:44 11,0 C 11,1 C 8,9 C 82 % 0 lf 1023,6 hPa 0,0 l/m 0 min 0 min 0 W/m 20,9 km/h (4 Bft) 93,62 %
26.01.2016 00:46 11,0 C 11,1 C 8,9 C 82 % 0 lf 1023,7 hPa 0,0 l/m 0 min 0 min 0 W/m 23,0 km/h (4 Bft) 92,73 %
26.01.2016 00:48 11,0 C 11,1 C 8,9 C 82 % 0 lf 1023,7 hPa 0,0 l/m 0 min 0 min 0 W/m 23,0 km/h (4 Bft) 92,00 %
26.01.2016 00:50 11,0 C 11,1 C 8,9 C 82 % 0 lf 1023,6 hPa 0,0 l/m 0 min 0 min 0 W/m 23,0 km/h (4 Bft) 92,11 %
26.01.2016 00:52 11,0 C 11,1 C 9,4 C 82 % 0 lf 1023,6 hPa 0,0 l/m 0 min 0 min 0 W/m 25,1 km/h (4 Bft) 97,87 %
26.01.2016 00:54 11,1 C 11,1 C 9,4 C 82 % 0 lf 1023,5 hPa 0,0 l/m 0 min 0 min 0 W/m 33,5 km/h (5 Bft) 95,74 %
26.01.2016 00:56 11,1 C 11,1 C 9,4 C 82 % 0 lf 1023,2 hPa 0,0 l/m 0 min 0 min 0 W/m 25,1 km/h (4 Bft) 93,62 %
26.01.2016 00:58 11,1 C 11,1 C 9,4 C 82 % 0 lf 1023,0 hPa 0,0 l/m 0 min 0 min 0 W/m 18,8 km/h (3 Bft) 96,36 %
26.01.2016 01:00 11,1 C 11,1 C 8,9 C 82 % 0 lf 1023,0 hPa 0,0 l/m 0 min 0 min 0 W/m 16,7 km/h (3 Bft) 94,74 %
26.01.2016 01:02 11,1 C 11,1 C 8,9 C 82 % 0 lf 1023,0 hPa 0,0 l/m 0 min 0 min 0 W/m 18,8 km/h (3 Bft) 96,00 %
26.01.2016 01:04 11,1 C 11,1 C 8,9 C 83 % 0 lf 1023,1 hPa 0,0 l/m 0 min 0 min 0 W/m 20,9 km/h (4 Bft) 93,62 %
26.01.2016 01:06 11,1 C 11,1 C 9,4 C 83 % 0 lf 1023,0 hPa 0,0 l/m 0 min 0 min 0 W/m 18,8 km/h (3 Bft) 94,00 %
26.01.2016 01:08 11,1 C 11,1 C 8,9 C 83 % 0 lf 1023,0 hPa 0,0 l/m 0 min 0 min 0 W/m 18,8 km/h (3 Bft) 94,74 %
26.01.2016 01:10 11,1 C 11,1 C 8,9 C 83 % 0 lf 1023,1 hPa 0,0 l/m 0 min 0 min 0 W/m 25,1 km/h (4 Bft) 97,87 %
26.01.2016 01:12 11,1 C 11,1 C 8,9 C 83 % 0 lf 1023,2 hPa 0,0 l/m 0 min 0 min 0 W/m 14,6 km/h (3 Bft) 96,36 %
26.01.2016 01:14 11,1 C 11,1 C 9,4 C 83 % 0 lf 1023,3 hPa 0,0 l/m 0 min 0 min 0 W/m 29,3 km/h (5 Bft) 91,49 %
26.01.2016 01:16 11,1 C 11,1 C 9,4 C 83 % 0 lf 1023,5 hPa 0,0 l/m 0 min 0 min 0 W/m 23,0 km/h (4 Bft) 94,00 %
26.01.2016 01:18 11,1 C 11,1 C 9,4 C 83 % 0 lf 1023,6 hPa 0,0 l/m 0 min 0 min 0 W/m 25,1 km/h (4 Bft) 94,74 %
26.01.2016 01:20 11,1 C 11,1 C 9,4 C 83 % 0 lf 1023,7 hPa 0,0 l/m 0 min 0 min 0 W/m 27,2 km/h (4 Bft) 96,00 %
26.01.2016 01:22 11,1 C 11,1 C 9,4 C 83 % 0 lf 1023,8 hPa 0,0 l/m 0 min 0 min 0 W/m 25,1 km/h (4 Bft) 95,65 %
26.01.2016 01:24 11,1 C 11,1 C 8,9 C 83 % 0 lf 1023,8 hPa 0,0 l/m 0 min 0 min 0 W/m 23,0 km/h (4 Bft) 91,49 %
26.01.2016 01:26 11,1 C 11,1 C 8,9 C 83 % 0 lf 1023,9 hPa 0,0 l/m 0 min 0 min 0 W/m 16,7 km/h (3 Bft) 97,73 %
26.01.2016 01:28 11,1 C 11,1 C 8,9 C 84 % 0 lf 1023,8 hPa 0,0 l/m 0 min 0 min 0 W/m 25,1 km/h (4 Bft) 98,00 %
26.01.2016 01:30 11,1 C 11,1 C 8,9 C 84 % 0 lf 1023,7 hPa 0,0 l/m 0 min 0 min 0 W/m 18,8 km/h (3 Bft) 100,00 %
26.01.2016 01:32 11,1 C 11,1 C 8,9 C 83 % 0 lf 1023,8 hPa 0,0 l/m 0 min 0 min 0 W/m 18,8 km/h (3 Bft) 100,00 %
26.01.2016 01:34 11,0 C 11,1 C 8,9 C 84 % 0 lf 1023,9 hPa 0,0 l/m 0 min 0 min 0 W/m 23,0 km/h (4 Bft) 93,62 %
26.01.2016 01:36 11,0 C 11,1 C 8,9 C 84 % 0 lf 1023,9 hPa 0,0 l/m 0 min 0 min 0 W/m 20,9 km/h (4 Bft) 100,00 %
26.01.2016 01:38 11,0 C 11,1 C 8,9 C 84 % 0 lf 1023,8 hPa 0,0 l/m 0 min 0 min 0 W/m 25,1 km/h (4 Bft) 97,87 %
26.01.2016 01:40 11,0 C 11,1 C 8,9 C 84 % 0 lf 1023,9 hPa 0,0 l/m 0 min 0 min 0 W/m 23,0 km/h (4 Bft) 100,00 %
26.01.2016 01:42 10,9 C 11,1 C 8,9 C 84 % 0 lf 1023,8 hPa 0,0 l/m 0 min 0 min 0 W/m 23,0 km/h (4 Bft) 100,00 %
26.01.2016 01:44 10,9 C 11,1 C 8,9 C 84 % 0 lf 1023,8 hPa 0,0 l/m 0 min 0 min 0 W/m 23,0 km/h (4 Bft) 98,08 %
26.01.2016 01:46 10,9 C 11,1 C 8,9 C 84 % 0 lf 1023,7 hPa 0,0 l/m 0 min 0 min 0 W/m 20,9 km/h (4 Bft) 100,00 %
26.01.2016 01:48 10,9 C 11,1 C 8,9 C 85 % 0 lf 1023,8 hPa 0,0 l/m 0 min 0 min 0 W/m 25,1 km/h (4 Bft) 97,87 %
26.01.2016 01:50 10,9 C 11,1 C 8,9 C 85 % 0 lf 1023,9 hPa 0,0 l/m 0 min 0 min 0 W/m 25,1 km/h (4 Bft) 97,87 %
26.01.2016 01:52 10,9 C 11,1 C 8,9 C 85 % 0 lf 1023,9 hPa 0,0 l/m 0 min 0 min 0 W/m 25,1 km/h (4 Bft) 100,00 %
26.01.2016 01:54 10,9 C 11,1 C 8,9 C 85 % 0 lf 1023,9 hPa 0,0 l/m 0 min 0 min 0 W/m 20,9 km/h (4 Bft) 100,00 %
26.01.2016 01:56 10,9 C 11,1 C 8,9 C 85 % 0 lf 1024,0 hPa 0,0 l/m 0 min 0 min 0 W/m 20,9 km/h (4 Bft) 100,00 %
26.01.2016 01:58 10,9 C 11,1 C 8,9 C 85 % 0 lf 1024,0 hPa 0,0 l/m 0 min 0 min 0 W/m 25,1 km/h (4 Bft) 97,67 %
26.01.2016 02:00 10,9 C 11,1 C 8,9 C 85 % 0 lf 1023,9 hPa 0,0 l/m 0 min 0 min 0 W/m 20,9 km/h (4 Bft) 100,00 %
26.01.2016 02:02 10,9 C 11,1 C 9,4 C 85 % 0 lf 1023,9 hPa 0,0 l/m 0 min 0 min 0 W/m 23,0 km/h (4 Bft) 97,73 %
26.01.2016 02:04 10,9 C 11,1 C 9,4 C 85 % 0 lf 1023,9 hPa 0,0 l/m 0 min 0 min 0 W/m 18,8 km/h (3 Bft) 100,00 %
26.01.2016 02:06 10,9 C 11,1 C 9,4 C 85 % 0 lf 1023,9 hPa 0,0 l/m 0 min 0 min 0 W/m 18,8 km/h (3 Bft) 100,00 %
26.01.2016 02:08 10,9 C 11,1 C 9,4 C 85 % 0 lf 1024,0 hPa 0,0 l/m 0 min 0 min 0 W/m 25,1 km/h (4 Bft) 100,00 %
26.01.2016 02:10 10,9 C 11,1 C 9,4 C 86 % 0 lf 1024,0 hPa 0,0 l/m 0 min 0 min 0 W/m 20,9 km/h (4 Bft) 98,18 %
26.01.2016 02:12 10,9 C 11,1 C 9,4 C 86 % 0 lf 1024,0 hPa 0,0 l/m 0 min 0 min 0 W/m 25,1 km/h (4 Bft) 100,00 %
26.01.2016 02:14 10,9 C 11,1 C 9,4 C 86 % 0 lf 1024,1 hPa 0,0 l/m 0 min 0 min 0 W/m 29,3 km/h (5 Bft) 100,00 %
26.01.2016 02:16 10,9 C 11,1 C 9,4 C 86 % 0 lf 1024,1 hPa 0,0 l/m 0 min 0 min 0 W/m 23,0 km/h (4 Bft) 98,21 %
26.01.2016 02:18 10,9 C 11,1 C 9,4 C 86 % 0 lf 1024,2 hPa 0,0 l/m 0 min 0 min 0 W/m 27,2 km/h (4 Bft) 100,00 %
26.01.2016 02:20 10,9 C 11,1 C 9,4 C 86 % 0 lf 1024,2 hPa 0,0 l/m 0 min 0 min 0 W/m 25,1 km/h (4 Bft) 97,37 %
26.01.2016 02:22 10,9 C 11,1 C 9,4 C 86 % 0 lf 1024,2 hPa 0,0 l/m 0 min 0 min 0 W/m 27,2 km/h (4 Bft) 100,00 %
26.01.2016 02:24 11,0 C 11,1 C 9,4 C 86 % 0 lf 1024,1 hPa 0,0 l/m 0 min 0 min 0 W/m 23,0 km/h (4 Bft) 95,74 %
26.01.2016 02:26 11,0 C 11,1 C 9,4 C 87 % 0 lf 1024,0 hPa 0,0 l/m 0 min 0 min 0 W/m 25,1 km/h (4 Bft) 100,00 %
26.01.2016 02:28 11,0 C 11,1 C 9,4 C 87 % 0 lf 1024,0 hPa 0,0 l/m 0 min 0 min 0 W/m 23,0 km/h (4 Bft) 100,00 %
26.01.2016 02:30 11,0 C 11,1 C 9,4 C 87 % 0 lf 1024,0 hPa 0,0 l/m 0 min 0 min 0 W/m 25,1 km/h (4 Bft) 100,00 %
26.01.2016 02:32 11,0 C 11,1 C 9,4 C 87 % 0 lf 1023,8 hPa 0,0 l/m 0 min 0 min 0 W/m 35,6 km/h (5 Bft) 95,92 %
26.01.2016 02:34 11,0 C 11,1 C 9,4 C 87 % 0 lf 1023,8 hPa 0,0 l/m 0 min 0 min 0 W/m 25,1 km/h (4 Bft) 98,00 %
26.01.2016 02:36 11,0 C 11,1 C 9,4 C 87 % 0 lf 1023,8 hPa 0,0 l/m 0 min 0 min 0 W/m 20,9 km/h (4 Bft) 97,87 %
26.01.2016 02:38 11,0 C 11,1 C 9,4 C 87 % 0 lf 1023,8 hPa 0,0 l/m 0 min 0 min 0 W/m 31,4 km/h (5 Bft) 97,87 %
26.01.2016 02:40 11,0 C 11,1 C 9,4 C 87 % 0 lf 1023,8 hPa 0,0 l/m 0 min 0 min 0 W/m 25,1 km/h (4 Bft) 94,29 %
26.01.2016 02:42 10,9 C 11,1 C 8,9 C 87 % 0 lf 1023,8 hPa 0,0 l/m 0 min 0 min 0 W/m 23,0 km/h (4 Bft) 100,00 %
26.01.2016 02:44 10,9 C 11,1 C 9,4 C 87 % 0 lf 1023,9 hPa 0,0 l/m 0 min 0 min 0 W/m 20,9 km/h (4 Bft) 95,65 %
26.01.2016 02:46 10,9 C 11,1 C 9,4 C 87 % 0 lf 1024,0 hPa 0,0 l/m 0 min 0 min 0 W/m 25,1 km/h (4 Bft) 94,00 %
26.01.2016 02:48 10,9 C 11,1 C 9,4 C 87 % 0 lf 1024,0 hPa 0,0 l/m 0 min 0 min 0 W/m 23,0 km/h (4 Bft) 97,87 %
26.01.2016 02:50 10,9 C 11,1 C 9,4 C 87 % 0 lf 1024,0 hPa 0,0 l/m 0 min 0 min 0 W/m 20,9 km/h (4 Bft) 93,62 %
26.01.2016 02:52 10,9 C 11,1 C 9,4 C 87 % 0 lf 1024,0 hPa 0,0 l/m 0 min 0 min 0 W/m 27,2 km/h (4 Bft) 91,43 %
26.01.2016 02:54 10,9 C 11,1 C 9,4 C 87 % 0 lf 1024,1 hPa 0,0 l/m 0 min 0 min 0 W/m 20,9 km/h (4 Bft) 94,34 %
26.01.2016 02:56 10,9 C 11,1 C 9,4 C 88 % 0 lf 1024,0 hPa 0,0 l/m 0 min 0 min 0 W/m 20,9 km/h (4 Bft) 91,30 %
26.01.2016 02:58 10,9 C 11,1 C 9,4 C 88 % 0 lf 1024,0 hPa 0,0 l/m 0 min 0 min 0 W/m 18,8 km/h (3 Bft) 91,49 %
26.01.2016 03:00 10,9 C 11,1 C 9,4 C 88 % 0 lf 1024,0 hPa 0,0 l/m 0 min 0 min 0 W/m 23,0 km/h (4 Bft) 96,00 %
26.01.2016 03:02 10,9 C 11,1 C 8,9 C 88 % 0 lf 1024,1 hPa 0,0 l/m 0 min 0 min 0 W/m 23,0 km/h (4 Bft) 90,00 %
26.01.2016 03:04 10,9 C 11,1 C 8,9 C 88 % 0 lf 1024,0 hPa 0,0 l/m 0 min 0 min 0 W/m 31,4 km/h (5 Bft) 96,00 %
26.01.2016 03:06 10,9 C 11,1 C 8,9 C 88 % 0 lf 1023,9 hPa 0,0 l/m 0 min 0 min 0 W/m 29,3 km/h (5 Bft) 92,11 %
26.01.2016 03:08 10,9 C 11,1 C 8,9 C 88 % 0 lf 1024,0 hPa 0,0 l/m 0 min 0 min 0 W/m 16,7 km/h (3 Bft) 91,30 %
26.01.2016 03:10 10,9 C 11,1 C 8,9 C 88 % 0 lf 1024,0 hPa 0,0 l/m 0 min 0 min 0 W/m 23,0 km/h (4 Bft) 91,49 %
26.01.2016 03:12 10,9 C 11,1 C 9,4 C 88 % 0 lf 1024,0 hPa 0,0 l/m 0 min 0 min 0 W/m 23,0 km/h (4 Bft) 93,62 %
26.01.2016 03:14 10,8 C 11,1 C 9,4 C 88 % 0 lf 1024,0 hPa 0,0 l/m 0 min 0 min 0 W/m 18,8 km/h (3 Bft) 92,86 %
26.01.2016 03:16 10,8 C 11,1 C 9,4 C 89 % 0 lf 1023,9 hPa 0,0 l/m 0 min 0 min 0 W/m 20,9 km/h (4 Bft) 93,62 %
26.01.2016 03:18 10,8 C 11,1 C 9,4 C 89 % 0 lf 1023,8 hPa 0,0 l/m 0 min 0 min 0 W/m 27,2 km/h (4 Bft) 92,11 %
26.01.2016 03:20 10,8 C 11,1 C 8,9 C 89 % 0 lf 1023,8 hPa 0,0 l/m 0 min 0 min 0 W/m 23,0 km/h (4 Bft) 90,38 %
26.01.2016 03:22 10,8 C 10,6 C 8,9 C 89 % 0 lf 1023,7 hPa 0,0 l/m 0 min 0 min 0 W/m 14,6 km/h (3 Bft) 91,49 %
26.01.2016 03:24 10,8 C 10,6 C 8,9 C 89 % 0 lf 1023,8 hPa 0,0 l/m 0 min 0 min 0 W/m 18,8 km/h (3 Bft) 87,23 %
26.01.2016 03:26 10,8 C 10,6 C 8,9 C 89 % 0 lf 1023,7 hPa 0,0 l/m 0 min 0 min 0 W/m 18,8 km/h (3 Bft) 90,00 %
26.01.2016 03:28 10,8 C 10,6 C 8,9 C 89 % 0 lf 1023,8 hPa 0,0 l/m 0 min 0 min 0 W/m 23,0 km/h (4 Bft) 93,48 %
26.01.2016 03:30 10,8 C 11,1 C 9,4 C 89 % 0 lf 1023,8 hPa 0,0 l/m 0 min 0 min 0 W/m 18,8 km/h (3 Bft) 92,31 %
26.01.2016 03:32 10,8 C 11,1 C 9,4 C 89 % 0 lf 1023,8 hPa 0,0 l/m 0 min 0 min 0 W/m 25,1 km/h (4 Bft) 91,84 %
26.01.2016 03:34 10,8 C 11,1 C 9,4 C 89 % 0 lf 1023,7 hPa 0,0 l/m 0 min 0 min 0 W/m 25,1 km/h (4 Bft) 93,62 %
26.01.2016 03:36 10,8 C 11,1 C 9,4 C 89 % 0 lf 1023,7 hPa 0,0 l/m 0 min 0 min 0 W/m 25,1 km/h (4 Bft) 94,00 %
26.01.2016 03:38 10,8 C 11,1 C 9,4 C 89 % 0 lf 1023,9 hPa 0,0 l/m 0 min 0 min 0 W/m 23,0 km/h (4 Bft) 92,68 %
26.01.2016 03:40 10,8 C 11,1 C 9,4 C 89 % 0 lf 1023,9 hPa 0,0 l/m 0 min 0 min 0 W/m 25,1 km/h (4 Bft) 90,00 %
26.01.2016 03:42 10,8 C 11,1 C 9,4 C 89 % 0 lf 1023,9 hPa 0,0 l/m 0 min 0 min 0 W/m 20,9 km/h (4 Bft) 93,88 %
26.01.2016 03:44 10,8 C 11,1 C 9,4 C 89 % 0 lf 1023,9 hPa 0,0 l/m 0 min 0 min 0 W/m 16,7 km/h (3 Bft) 97,22 %
26.01.2016 03:46 10,8 C 11,1 C 9,4 C 89 % 0 lf 1023,9 hPa 0,0 l/m 0 min 0 min 0 W/m 23,0 km/h (4 Bft) 91,30 %
26.01.2016 03:48 10,8 C 11,1 C 9,4 C 89 % 0 lf 1023,8 hPa 0,0 l/m 0 min 0 min 0 W/m 16,7 km/h (3 Bft) 96,23 %
26.01.2016 03:50 10,8 C 11,1 C 9,4 C 89 % 0 lf 1023,8 hPa 0,0 l/m 0 min 0 min 0 W/m 16,7 km/h (3 Bft) 97,56 %
26.01.2016 03:52 10,8 C 11,1 C 8,9 C 89 % 0 lf 1023,7 hPa 0,0 l/m 0 min 0 min 0 W/m 18,8 km/h (3 Bft) 98,21 %
26.01.2016 03:54 10,8 C 10,6 C 8,9 C 89 % 0 lf 1023,6 hPa 0,0 l/m 0 min 0 min 0 W/m 14,6 km/h (3 Bft) 93,48 %
26.01.2016 03:56 10,8 C 10,6 C 8,9 C 89 % 0 lf 1023,6 hPa 0,0 l/m 0 min 0 min 0 W/m 18,8 km/h (3 Bft) 95,74 %
26.01.2016 03:58 10,8 C 10,6 C 8,9 C 89 % 0 lf 1023,6 hPa 0,0 l/m 0 min 0 min 0 W/m 20,9 km/h (4 Bft) 97,87 %
26.01.2016 04:00 10,7 C 10,6 C 8,9 C 89 % 0 lf 1023,6 hPa 0,0 l/m 0 min 0 min 0 W/m 14,6 km/h (3 Bft) 95,74 %
26.01.2016 04:05 10,7 C 10,6 C 8,9 C 89 % 0 lf 1023,8 hPa 0,0 l/m 0 min 0 min 0 W/m 14,6 km/h (3 Bft) 95,65 %
26.01.2016 04:06 10,7 C 10,6 C 8,9 C 89 % 0 lf 1023,8 hPa 0,0 l/m 0 min 0 min 0 W/m 16,7 km/h (3 Bft) 95,65 %
26.01.2016 04:08 10,7 C 10,6 C 8,9 C 89 % 0 lf 1023,8 hPa 0,0 l/m 0 min 0 min 0 W/m 12,6 km/h (3 Bft) 97,87 %
26.01.2016 04:10 10,6 C 10,0 C 8,3 C 89 % 0 lf 1023,7 hPa 0,0 l/m 0 min 0 min 0 W/m 14,6 km/h (3 Bft) 97,87 %
26.01.2016 04:12 10,6 C 10,0 C 8,3 C 89 % 0 lf 1023,6 hPa 0,0 l/m 0 min 0 min 0 W/m 18,8 km/h (3 Bft) 97,87 %
26.01.2016 04:14 10,6 C 10,0 C 8,3 C 89 % 0 lf 1023,7 hPa 0,0 l/m 0 min 0 min 0 W/m 18,8 km/h (3 Bft) 97,87 %
26.01.2016 04:16 10,5 C 10,0 C 8,3 C 89 % 0 lf 1023,8 hPa 0,0 l/m 0 min 0 min 0 W/m 16,7 km/h (3 Bft) 97,83 %
26.01.2016 04:18 10,5 C 10,0 C 8,3 C 89 % 0 lf 1023,7 hPa 0,0 l/m 0 min 0 min 0 W/m 16,7 km/h (3 Bft) 100,00 %
26.01.2016 04:20 10,4 C 10,0 C 8,3 C 89 % 0 lf 1023,8 hPa 0,0 l/m 0 min 0 min 0 W/m 20,9 km/h (4 Bft) 100,00 %
26.01.2016 04:22 10,4 C 10,0 C 8,3 C 89 % 0 lf 1023,9 hPa 0,0 l/m 0 min 0 min 0 W/m 16,7 km/h (3 Bft) 100,00 %
26.01.2016 04:24 10,4 C 10,0 C 8,3 C 89 % 0 lf 1023,8 hPa 0,0 l/m 0 min 0 min 0 W/m 16,7 km/h (3 Bft) 95,74 %
26.01.2016 04:26 10,4 C 10,0 C 8,3 C 90 % 0 lf 1023,7 hPa 0,0 l/m 0 min 0 min 0 W/m 10,5 km/h (2 Bft) 100,00 %
26.01.2016 04:28 10,4 C 10,0 C 8,3 C 90 % 0 lf 1023,7 hPa 0,0 l/m 0 min 0 min 0 W/m 8,4 km/h (2 Bft) 100,00 %
26.01.2016 04:30 10,3 C 10,0 C 8,3 C 90 % 0 lf 1023,6 hPa 0,0 l/m 0 min 0 min 0 W/m 14,6 km/h (3 Bft) 100,00 %
26.01.2016 04:32 10,3 C 10,0 C 8,3 C 90 % 0 lf 1023,6 hPa 0,0 l/m 0 min 0 min 0 W/m 14,6 km/h (3 Bft) 100,00 %
26.01.2016 04:34 10,3 C 10,0 C 8,3 C 90 % 0 lf 1023,6 hPa 0,0 l/m 0 min 0 min 0 W/m 12,6 km/h (3 Bft) 100,00 %
26.01.2016 04:36 10,3 C 10,0 C 8,3 C 90 % 0 lf 1023,6 hPa 0,0 l/m 0 min 0 min 0 W/m 16,7 km/h (3 Bft) 100,00 %
26.01.2016 04:38 10,3 C 10,0 C 8,3 C 90 % 0 lf 1023,6 hPa 0,0 l/m 0 min 0 min 0 W/m 12,6 km/h (3 Bft) 97,87 %
26.01.2016 04:40 10,3 C 10,0 C 8,3 C 90 % 0 lf 1023,6 hPa 0,0 l/m 0 min 0 min 0 W/m 12,6 km/h (3 Bft) 97,83 %
26.01.2016 04:42 10,2 C 10,0 C 8,3 C 90 % 0 lf 1023,6 hPa 0,0 l/m 0 min 0 min 0 W/m 12,6 km/h (3 Bft) 97,87 %
26.01.2016 04:44 10,2 C 10,0 C 8,3 C 90 % 0 lf 1023,6 hPa 0,0 l/m 0 min 0 min 0 W/m 12,6 km/h (3 Bft) 95,74 %
26.01.2016 04:46 10,2 C 10,0 C 8,3 C 90 % 0 lf 1023,6 hPa 0,0 l/m 0 min 0 min 0 W/m 16,7 km/h (3 Bft) 92,11 %
26.01.2016 04:48 10,2 C 10,0 C 8,3 C 90 % 0 lf 1023,6 hPa 0,0 l/m 0 min 0 min 0 W/m 16,7 km/h (3 Bft) 93,62 %
26.01.2016 04:50 10,2 C 10,0 C 8,3 C 90 % 0 lf 1023,7 hPa 0,0 l/m 0 min 0 min 0 W/m 14,6 km/h (3 Bft) 97,87 %
26.01.2016 04:52 10,2 C 10,0 C 8,3 C 90 % 0 lf 1023,7 hPa 0,0 l/m 0 min 0 min 0 W/m 18,8 km/h (3 Bft) 95,74 %
26.01.2016 04:54 10,1 C 10,0 C 8,3 C 90 % 0 lf 1023,6 hPa 0,0 l/m 0 min 0 min 0 W/m 20,9 km/h (4 Bft) 97,83 %
26.01.2016 04:56 10,1 C 10,0 C 8,3 C 90 % 0 lf 1023,6 hPa 0,0 l/m 0 min 0 min 0 W/m 23,0 km/h (4 Bft) 97,87 %
26.01.2016 04:58 10,1 C 10,0 C 8,3 C 91 % 0 lf 1023,6 hPa 0,0 l/m 0 min 0 min 0 W/m 14,6 km/h (3 Bft) 93,62 %
26.01.2016 05:00 10,1 C 10,0 C 8,3 C 91 % 0 lf 1023,7 hPa 0,0 l/m 0 min 0 min 0 W/m 14,6 km/h (3 Bft) 97,87 %
26.01.2016 05:02 10,1 C 10,0 C 8,3 C 91 % 0 lf 1023,8 hPa 0,0 l/m 0 min 0 min 0 W/m 18,8 km/h (3 Bft) 95,74 %
26.01.2016 05:04 10,1 C 10,0 C 8,3 C 91 % 0 lf 1023,8 hPa 0,0 l/m 0 min 0 min 0 W/m 12,6 km/h (3 Bft) 100,00 %
26.01.2016 05:06 10,1 C 10,0 C 8,3 C 91 % 0 lf 1023,8 hPa 0,0 l/m 0 min 0 min 0 W/m 18,8 km/h (3 Bft) 97,83 %
26.01.2016 05:08 10,1 C 10,0 C 8,3 C 91 % 0 lf 1023,8 hPa 0,0 l/m 0 min 0 min 0 W/m 18,8 km/h (3 Bft) 97,87 %
26.01.2016 05:10 10,1 C 10,0 C 8,3 C 91 % 0 lf 1023,7 hPa 0,0 l/m 0 min 0 min 0 W/m 16,7 km/h (3 Bft) 97,87 %
26.01.2016 05:12 10,1 C 10,0 C 8,3 C 91 % 0 lf 1023,7 hPa 0,0 l/m 0 min 0 min 0 W/m 16,7 km/h (3 Bft) 97,87 %
26.01.2016 05:14 10,1 C 10,0 C 8,3 C 91 % 0 lf 1023,8 hPa 0,0 l/m 0 min 0 min 0 W/m 20,9 km/h (4 Bft) 97,87 %
26.01.2016 05:16 10,1 C 10,0 C 8,3 C 91 % 0 lf 1023,7 hPa 0,0 l/m 0 min 0 min 0 W/m 16,7 km/h (3 Bft) 95,74 %
26.01.2016 05:18 10,1 C 10,0 C 8,3 C 91 % 0 lf 1023,8 hPa 0,0 l/m 0 min 0 min 0 W/m 12,6 km/h (3 Bft) 93,48 %
26.01.2016 05:20 10,0 C 10,0 C 7,8 C 91 % 0 lf 1023,7 hPa 0,0 l/m 0 min 0 min 0 W/m 14,6 km/h (3 Bft) 97,87 %
26.01.2016 05:22 10,0 C 10,0 C 7,8 C 91 % 0 lf 1023,7 hPa 0,0 l/m 0 min 0 min 0 W/m 16,7 km/h (3 Bft) 100,00 %
26.01.2016 05:24 10,0 C 9,4 C 7,8 C 91 % 0 lf 1023,6 hPa 0,0 l/m 0 min 0 min 0 W/m 8,4 km/h (2 Bft) 100,00 %
26.01.2016 05:26 9,9 C 9,4 C 7,8 C 91 % 0 lf 1023,6 hPa 0,0 l/m 0 min 0 min 0 W/m 12,6 km/h (3 Bft) 97,87 %
26.01.2016 05:28 9,9 C 9,4 C 7,8 C 91 % 0 lf 1023,7 hPa 0,0 l/m 0 min 0 min 0 W/m 10,5 km/h (2 Bft) 95,74 %
26.01.2016 05:30 9,9 C 9,4 C 7,8 C 91 % 0 lf 1023,7 hPa 0,0 l/m 0 min 0 min 0 W/m 8,4 km/h (2 Bft) 100,00 %
26.01.2016 05:32 9,9 C 9,4 C 7,8 C 91 % 0 lf 1023,7 hPa 0,0 l/m 0 min 0 min 0 W/m 10,5 km/h (2 Bft) 95,74 %
26.01.2016 05:34 9,9 C 9,4 C 7,8 C 91 % 0 lf 1023,7 hPa 0,0 l/m 0 min 0 min 0 W/m 10,5 km/h (2 Bft) 100,00 %
26.01.2016 05:36 9,8 C 9,4 C 7,8 C 91 % 0 lf 1023,8 hPa 0,0 l/m 0 min 0 min 0 W/m 14,6 km/h (3 Bft) 100,00 %
26.01.2016 05:38 9,8 C 9,4 C 7,8 C 91 % 0 lf 1023,7 hPa 0,0 l/m 0 min 0 min 0 W/m 12,6 km/h (3 Bft) 100,00 %
26.01.2016 05:40 9,8 C 9,4 C 7,8 C 91 % 0 lf 1023,7 hPa 0,0 l/m 0 min 0 min 0 W/m 10,5 km/h (2 Bft) 97,83 %
26.01.2016 05:42 9,8 C 9,4 C 7,8 C 91 % 0 lf 1023,7 hPa 0,0 l/m 0 min 0 min 0 W/m 12,6 km/h (3 Bft) 95,74 %
26.01.2016 05:44 9,8 C 9,4 C 7,8 C 91 % 0 lf 1023,6 hPa 0,0 l/m 0 min 0 min 0 W/m 16,7 km/h (3 Bft) 97,87 %
26.01.2016 05:46 9,8 C 9,4 C 7,8 C 91 % 0 lf 1023,6 hPa 0,0 l/m 0 min 0 min 0 W/m 10,5 km/h (2 Bft) 95,74 %
26.01.2016 05:48 9,8 C 9,4 C 7,8 C 92 % 0 lf 1023,5 hPa 0,0 l/m 0 min 0 min 0 W/m 18,8 km/h (3 Bft) 97,87 %
26.01.2016 05:50 9,7 C 9,4 C 7,8 C 91 % 0 lf 1023,6 hPa 0,0 l/m 0 min 0 min 0 W/m 16,7 km/h (3 Bft) 97,87 %
26.01.2016 05:52 9,7 C 9,4 C 7,8 C 92 % 0 lf 1023,6 hPa 0,0 l/m 0 min 0 min 0 W/m 14,6 km/h (3 Bft) 95,65 %
26.01.2016 05:54 9,7 C 10,0 C 8,3 C 92 % 0 lf 1023,6 hPa 0,0 l/m 0 min 0 min 0 W/m 14,6 km/h (3 Bft) 95,74 %
26.01.2016 05:56 9,7 C 10,0 C 8,3 C 92 % 0 lf 1023,6 hPa 0,0 l/m 0 min 0 min 0 W/m 14,6 km/h (3 Bft) 97,87 %
26.01.2016 05:58 9,7 C 10,0 C 8,3 C 92 % 0 lf 1023,6 hPa 0,0 l/m 0 min 0 min 0 W/m 14,6 km/h (3 Bft) 97,87 %
26.01.2016 06:00 9,7 C 10,0 C 8,3 C 92 % 0 lf 1023,5 hPa 0,0 l/m 0 min 0 min 0 W/m 14,6 km/h (3 Bft) 97,87 %
26.01.2016 06:02 9,7 C 10,0 C 8,3 C 92 % 0 lf 1023,5 hPa 0,0 l/m 0 min 0 min 0 W/m 18,8 km/h (3 Bft) 97,87 %
26.01.2016 06:04 9,7 C 10,0 C 8,3 C 92 % 0 lf 1023,5 hPa 0,0 l/m 0 min 0 min 0 W/m 12,6 km/h (3 Bft) 98,11 %
26.01.2016 06:06 9,7 C 10,0 C 8,3 C 92 % 0 lf 1023,5 hPa 0,0 l/m 0 min 0 min 0 W/m 12,6 km/h (3 Bft) 97,87 %
26.01.2016 06:08 9,7 C 10,0 C 8,3 C 92 % 0 lf 1023,5 hPa 0,0 l/m 0 min 0 min 0 W/m 12,6 km/h (3 Bft) 95,74 %
26.01.2016 06:10 9,7 C 10,0 C 8,3 C 92 % 0 lf 1023,5 hPa 0,0 l/m 0 min 0 min 0 W/m 12,6 km/h (3 Bft) 97,87 %
26.01.2016 06:12 9,7 C 10,0 C 8,3 C 92 % 0 lf 1023,5 hPa 0,0 l/m 0 min 0 min 0 W/m 14,6 km/h (3 Bft) 93,62 %
26.01.2016 06:14 9,8 C 10,0 C 8,3 C 92 % 0 lf 1023,6 hPa 0,0 l/m 0 min 0 min 0 W/m 14,6 km/h (3 Bft) 97,83 %
26.01.2016 06:16 9,8 C 10,0 C 8,3 C 92 % 0 lf 1023,6 hPa 0,0 l/m 0 min 0 min 0 W/m 14,6 km/h (3 Bft) 97,87 %
26.01.2016 06:18 9,7 C 10,0 C 8,3 C 92 % 0 lf 1023,6 hPa 0,0 l/m 0 min 0 min 0 W/m 14,6 km/h (3 Bft) 93,62 %
26.01.2016 06:20 9,7 C 10,0 C 8,3 C 92 % 0 lf 1023,6 hPa 0,0 l/m 0 min 0 min 0 W/m 16,7 km/h (3 Bft) 93,62 %
26.01.2016 06:22 9,8 C 10,0 C 8,3 C 92 % 0 lf 1023,6 hPa 0,0 l/m 0 min 0 min 0 W/m 16,7 km/h (3 Bft) 95,74 %
26.01.2016 06:24 9,8 C 10,0 C 8,3 C 92 % 0 lf 1023,5 hPa 0,0 l/m 0 min 0 min 0 W/m 14,6 km/h (3 Bft) 95,74 %
26.01.2016 06:26 9,8 C 10,0 C 8,3 C 93 % 0 lf 1023,5 hPa 0,0 l/m 0 min 0 min 0 W/m 12,6 km/h (3 Bft) 95,65 %
26.01.2016 06:28 9,8 C 10,0 C 8,3 C 93 % 0 lf 1023,6 hPa 0,0 l/m 0 min 0 min 0 W/m 16,7 km/h (3 Bft) 95,74 %
26.01.2016 06:30 9,8 C 10,0 C 8,3 C 93 % 0 lf 1023,6 hPa 0,0 l/m 0 min 0 min 0 W/m 8,4 km/h (2 Bft) 95,74 %
26.01.2016 06:32 9,8 C 10,0 C 8,3 C 93 % 0 lf 1023,5 hPa 0,0 l/m 0 min 0 min 0 W/m 12,6 km/h (3 Bft) 97,92 %
26.01.2016 06:34 9,8 C 10,0 C 8,3 C 93 % 0 lf 1023,5 hPa 0,0 l/m 0 min 0 min 0 W/m 8,4 km/h (2 Bft) 95,74 %
26.01.2016 06:36 9,8 C 10,0 C 8,3 C 93 % 0 lf 1023,5 hPa 0,0 l/m 0 min 0 min 0 W/m 10,5 km/h (2 Bft) 93,48 %
26.01.2016 06:38 9,8 C 10,0 C 8,3 C 93 % 0 lf 1023,4 hPa 0,0 l/m 0 min 0 min 0 W/m 8,4 km/h (2 Bft) 95,74 %
26.01.2016 06:40 9,8 C 10,0 C 8,3 C 93 % 1 lf 1023,4 hPa 0,0 l/m 0 min 0 min 0 W/m 10,5 km/h (2 Bft) 91,11 %
26.01.2016 06:42 9,8 C 10,0 C 8,3 C 93 % 0 lf 1023,5 hPa 0,0 l/m 0 min 0 min 0 W/m 12,6 km/h (3 Bft) 89,36 %
26.01.2016 06:44 9,8 C 10,0 C 8,3 C 93 % 0 lf 1023,4 hPa 0,0 l/m 0 min 0 min 0 W/m 12,6 km/h (3 Bft) 95,74 %
26.01.2016 06:46 9,8 C 10,0 C 8,3 C 93 % 0 lf 1023,4 hPa 0,0 l/m 0 min 0 min 0 W/m 10,5 km/h (2 Bft) 93,62 %
26.01.2016 06:48 9,8 C 10,0 C 8,3 C 93 % 0 lf 1023,3 hPa 0,0 l/m 0 min 0 min 0 W/m 10,5 km/h (2 Bft) 93,62 %
26.01.2016 06:50 9,8 C 10,0 C 8,3 C 93 % 0 lf 1023,4 hPa 0,0 l/m 0 min 0 min 0 W/m 12,6 km/h (3 Bft) 91,30 %
26.01.2016 06:52 9,8 C 10,0 C 8,3 C 93 % 0 lf 1023,4 hPa 0,0 l/m 0 min 0 min 0 W/m 8,4 km/h (2 Bft) 93,62 %
26.01.2016 06:54 9,8 C 10,0 C 8,3 C 93 % 0 lf 1023,3 hPa 0,0 l/m 0 min 0 min 0 W/m 14,6 km/h (3 Bft) 91,49 %
26.01.2016 06:56 9,8 C 10,0 C 8,3 C 93 % 0 lf 1023,3 hPa 0,0 l/m 0 min 0 min 0 W/m 10,5 km/h (2 Bft) 91,49 %
26.01.2016 06:58 9,8 C 10,0 C 8,3 C 93 % 1 lf 1023,3 hPa 0,0 l/m 0 min 2 min 0 W/m 10,5 km/h (2 Bft) 93,62 %
26.01.2016 07:00 9,8 C 10,0 C 8,3 C 93 % 1 lf 1023,2 hPa 0,0 l/m 0 min 0 min 0 W/m 8,4 km/h (2 Bft) 91,49 %
26.01.2016 07:02 9,8 C 10,0 C 8,3 C 93 % 0 lf 1023,2 hPa 0,0 l/m 0 min 0 min 0 W/m 12,6 km/h (3 Bft) 93,48 %
26.01.2016 07:04 9,8 C 10,0 C 8,3 C 93 % 0 lf 1023,3 hPa 0,0 l/m 0 min 0 min 0 W/m 8,4 km/h (2 Bft) 93,62 %
26.01.2016 07:06 9,8 C 10,0 C 8,3 C 93 % 0 lf 1023,4 hPa 0,0 l/m 0 min 0 min 0 W/m 12,6 km/h (3 Bft) 89,36 %
26.01.2016 07:08 9,8 C 10,0 C 8,3 C 93 % 0 lf 1023,4 hPa 0,0 l/m 0 min 0 min 0 W/m 14,6 km/h (3 Bft) 97,87 %
26.01.2016 07:10 9,8 C 10,0 C 8,3 C 93 % 0 lf 1023,3 hPa 0,0 l/m 0 min 0 min 0 W/m 10,5 km/h (2 Bft) 97,87 %
26.01.2016 07:12 9,8 C 10,0 C 8,3 C 93 % 0 lf 1023,4 hPa 0,0 l/m 0 min 0 min 0 W/m 8,4 km/h (2 Bft) 97,83 %
26.01.2016 07:14 9,8 C 10,0 C 8,3 C 93 % 0 lf 1023,4 hPa 0,0 l/m 0 min 0 min 0 W/m 8,4 km/h (2 Bft) 93,62 %
26.01.2016 07:16 9,8 C 10,0 C 8,3 C 93 % 0 lf 1023,4 hPa 0,0 l/m 0 min 0 min 0 W/m 8,4 km/h (2 Bft) 97,87 %
26.01.2016 07:18 9,8 C 10,0 C 8,3 C 93 % 0 lf 1023,4 hPa 0,0 l/m 0 min 0 min 0 W/m 8,4 km/h (2 Bft) 91,49 %
26.01.2016 07:20 9,8 C 10,0 C 8,3 C 93 % 0 lf 1023,4 hPa 0,0 l/m 0 min 0 min 0 W/m 12,6 km/h (3 Bft) 95,74 %
26.01.2016 07:22 9,8 C 10,0 C 8,3 C 93 % 0 lf 1023,3 hPa 0,0 l/m 0 min 0 min 0 W/m 12,6 km/h (3 Bft) 95,74 %
26.01.2016 07:24 9,8 C 10,0 C 8,3 C 93 % 0 lf 1023,4 hPa 0,0 l/m 0 min 2 min 0 W/m 10,5 km/h (2 Bft) 93,48 %
26.01.2016 07:26 9,8 C 10,0 C 8,3 C 93 % 0 lf 1023,4 hPa 0,0 l/m 0 min 0 min 0 W/m 10,5 km/h (2 Bft) 97,87 %
26.01.2016 07:28 9,8 C 10,0 C 8,3 C 93 % 0 lf 1023,4 hPa 0,0 l/m 0 min 0 min 0 W/m 14,6 km/h (3 Bft) 97,87 %
26.01.2016 07:30 9,8 C 10,0 C 8,3 C 93 % 0 lf 1023,4 hPa 0,0 l/m 0 min 0 min 0 W/m 14,6 km/h (3 Bft) 95,74 %
26.01.2016 07:32 9,8 C 10,0 C 8,3 C 93 % 0 lf 1023,4 hPa 0,0 l/m 0 min 0 min 0 W/m 14,6 km/h (3 Bft) 95,74 %
26.01.2016 07:34 9,8 C 10,0 C 8,3 C 93 % 0 lf 1023,4 hPa 0,0 l/m 0 min 0 min 0 W/m 10,5 km/h (2 Bft) 93,62 %
26.01.2016 07:36 9,8 C 10,0 C 8,3 C 93 % 2 lf 1023,3 hPa 0,0 l/m 0 min 0 min 0 W/m 14,6 km/h (3 Bft) 97,83 %
26.01.2016 07:38 9,8 C 10,0 C 8,3 C 93 % 3 lf 1023,3 hPa 0,0 l/m 0 min 2 min 0 W/m 18,8 km/h (3 Bft) 93,62 %
26.01.2016 07:40 9,8 C 10,0 C 8,3 C 93 % 3 lf 1023,3 hPa 0,0 l/m 0 min 2 min 0 W/m 12,6 km/h (3 Bft) 97,87 %
26.01.2016 07:42 9,8 C 10,0 C 8,3 C 93 % 2 lf 1023,3 hPa 0,0 l/m 0 min 0 min 0 W/m 12,6 km/h (3 Bft) 100,00 %
26.01.2016 07:44 9,8 C 10,0 C 8,3 C 93 % 1 lf 1023,3 hPa 0,0 l/m 0 min 2 min 0 W/m 16,7 km/h (3 Bft) 97,87 %
26.01.2016 07:46 9,9 C 10,0 C 8,3 C 93 % 1 lf 1023,3 hPa 0,0 l/m 0 min 0 min 0 W/m 14,6 km/h (3 Bft) 95,74 %
26.01.2016 07:48 9,9 C 10,0 C 8,3 C 93 % 0 lf 1023,3 hPa 0,0 l/m 0 min 0 min 0 W/m 10,5 km/h (2 Bft) 100,00 %
26.01.2016 07:50 9,9 C 10,0 C 8,3 C 93 % 0 lf 1023,3 hPa 0,0 l/m 0 min 0 min 0 W/m 16,7 km/h (3 Bft) 100,00 %
26.01.2016 07:52 9,9 C 10,0 C 8,3 C 93 % 0 lf 1023,3 hPa 0,0 l/m 0 min 0 min 0 W/m 12,6 km/h (3 Bft) 100,00 %
26.01.2016 07:54 9,9 C 10,0 C 8,3 C 93 % 0 lf 1023,3 hPa 0,0 l/m 0 min 0 min 0 W/m 16,7 km/h (3 Bft) 100,00 %
26.01.2016 07:56 9,9 C 10,0 C 8,3 C 93 % 0 lf 1023,2 hPa 0,0 l/m 0 min 0 min 0 W/m 14,6 km/h (3 Bft) 97,87 %
26.01.2016 07:58 9,9 C 10,0 C 8,3 C 93 % 1 lf 1023,2 hPa 0,0 l/m 0 min 0 min 0 W/m 14,6 km/h (3 Bft) 95,74 %
26.01.2016 08:00 9,9 C 10,0 C 8,3 C 93 % 1 lf 1023,2 hPa 0,0 l/m 0 min 2 min 0 W/m 14,6 km/h (3 Bft) 95,65 %
26.01.2016 08:02 9,9 C 10,0 C 8,3 C 93 % 2 lf 1023,2 hPa 0,0 l/m 0 min 2 min 0 W/m 12,6 km/h (3 Bft) 100,00 %
26.01.2016 08:04 9,9 C 10,0 C 8,3 C 93 % 1 lf 1023,2 hPa 0,0 l/m 0 min 0 min 0 W/m 12,6 km/h (3 Bft) 97,87 %
26.01.2016 08:06 9,9 C 10,0 C 8,3 C 93 % 0 lf 1023,2 hPa 0,0 l/m 0 min 0 min 0 W/m 14,6 km/h (3 Bft) 95,74 %
26.01.2016 08:08 9,9 C 10,0 C 8,3 C 93 % 1 lf 1023,2 hPa 0,0 l/m 0 min 2 min 0 W/m 12,6 km/h (3 Bft) 100,00 %
26.01.2016 08:10 9,9 C 10,0 C 8,3 C 93 % 0 lf 1023,1 hPa 0,0 l/m 0 min 0 min 0 W/m 8,4 km/h (2 Bft) 100,00 %
26.01.2016 08:12 9,9 C 10,0 C 8,3 C 93 % 0 lf 1023,2 hPa 0,0 l/m 0 min 0 min 0 W/m 16,7 km/h (3 Bft) 100,00 %
26.01.2016 08:14 9,9 C 10,0 C 8,3 C 93 % 0 lf 1023,1 hPa 0,0 l/m 0 min 0 min 0 W/m 14,6 km/h (3 Bft) 100,00 %
26.01.2016 08:16 9,9 C 10,0 C 8,3 C 93 % 0 lf 1023,1 hPa 0,0 l/m 0 min 0 min 0 W/m 14,6 km/h (3 Bft) 97,87 %
26.01.2016 08:18 9,9 C 10,0 C 8,3 C 93 % 0 lf 1023,1 hPa 0,0 l/m 0 min 0 min 0 W/m 16,7 km/h (3 Bft) 97,87 %
26.01.2016 08:20 9,9 C 10,0 C 8,3 C 93 % 0 lf 1023,1 hPa 0,0 l/m 0 min 0 min 0 W/m 14,6 km/h (3 Bft) 100,00 %
26.01.2016 08:22 9,9 C 10,0 C 8,3 C 93 % 0 lf 1023,1 hPa 0,0 l/m 0 min 0 min 0 W/m 12,6 km/h (3 Bft) 93,62 %
26.01.2016 08:24 9,9 C 10,0 C 8,3 C 93 % 0 lf 1023,2 hPa 0,0 l/m 0 min 0 min 0 W/m 14,6 km/h (3 Bft) 97,83 %
26.01.2016 08:26 9,9 C 10,0 C 8,3 C 93 % 0 lf 1023,2 hPa 0,0 l/m 0 min 0 min 0 W/m 14,6 km/h (3 Bft) 100,00 %
26.01.2016 08:28 9,9 C 10,0 C 8,3 C 93 % 0 lf 1023,2 hPa 0,0 l/m 0 min 0 min 0 W/m 14,6 km/h (3 Bft) 95,74 %
26.01.2016 08:30 9,9 C 10,0 C 8,3 C 93 % 0 lf 1023,2 hPa 0,0 l/m 0 min 0 min 0 W/m 10,5 km/h (2 Bft) 97,87 %
26.01.2016 08:32 9,9 C 10,0 C 8,3 C 93 % 0 lf 1023,2 hPa 0,0 l/m 0 min 0 min 0 W/m 14,6 km/h (3 Bft) 93,62 %
26.01.2016 08:34 9,9 C 10,0 C 8,3 C 93 % 0 lf 1023,2 hPa 0,0 l/m 0 min 0 min 0 W/m 18,8 km/h (3 Bft) 95,65 %
26.01.2016 08:36 9,9 C 10,0 C 8,3 C 93 % 0 lf 1023,3 hPa 0,0 l/m 0 min 0 min 0 W/m 10,5 km/h (2 Bft) 95,74 %
26.01.2016 08:38 9,9 C 10,0 C 8,3 C 93 % 0 lf 1023,2 hPa 0,0 l/m 0 min 0 min 0 W/m 12,6 km/h (3 Bft) 95,74 %
26.01.2016 08:40 9,9 C 10,0 C 8,3 C 93 % 0 lf 1023,2 hPa 0,0 l/m 0 min 0 min 0 W/m 12,6 km/h (3 Bft) 89,36 %
26.01.2016 08:42 9,9 C 10,0 C 8,3 C 93 % 0 lf 1023,3 hPa 0,0 l/m 0 min 0 min 4 W/m 12,6 km/h (3 Bft) 93,62 %
26.01.2016 08:44 9,9 C 10,0 C 8,3 C 93 % 0 lf 1023,3 hPa 0,0 l/m 0 min 0 min 5 W/m 8,4 km/h (2 Bft) 93,62 %
26.01.2016 08:46 9,9 C 10,0 C 8,3 C 93 % 0 lf 1023,3 hPa 0,0 l/m 0 min 0 min 5 W/m 12,6 km/h (3 Bft) 95,65 %
26.01.2016 08:48 9,9 C 10,0 C 8,3 C 93 % 0 lf 1023,3 hPa 0,0 l/m 0 min 0 min 5 W/m 10,5 km/h (2 Bft) 95,74 %
26.01.2016 08:50 9,9 C 10,0 C 8,3 C 93 % 0 lf 1023,2 hPa 0,0 l/m 0 min 0 min 5 W/m 14,6 km/h (3 Bft) 93,62 %
26.01.2016 08:52 9,9 C 10,0 C 8,3 C 93 % 0 lf 1023,2 hPa 0,0 l/m 0 min 0 min 5 W/m 10,5 km/h (2 Bft) 95,74 %
26.01.2016 08:54 9,9 C 10,0 C 8,3 C 93 % 0 lf 1023,1 hPa 0,0 l/m 0 min 0 min 7 W/m 12,6 km/h (3 Bft) 95,74 %
26.01.2016 08:56 9,9 C 10,0 C 8,3 C 93 % 1 lf 1023,1 hPa 0,0 l/m 0 min 0 min 7 W/m 10,5 km/h (2 Bft) 95,74 %
26.01.2016 08:58 9,9 C 10,0 C 8,3 C 93 % 0 lf 1023,1 hPa 0,0 l/m 0 min 0 min 6 W/m 10,5 km/h (2 Bft) 93,48 %
26.01.2016 09:00 9,9 C 10,0 C 8,3 C 93 % 0 lf 1023,1 hPa 0,0 l/m 0 min 0 min 5 W/m 12,6 km/h (3 Bft) 93,62 %
26.01.2016 09:02 9,9 C 10,0 C 8,3 C 93 % 0 lf 1023,1 hPa 0,0 l/m 0 min 0 min 5 W/m 16,7 km/h (3 Bft) 95,74 %
26.01.2016 09:04 9,9 C 10,0 C 8,3 C 93 % 1 lf 1023,1 hPa 0,0 l/m 0 min 0 min 6 W/m 14,6 km/h (3 Bft) 97,87 %
26.01.2016 09:06 9,9 C 10,0 C 8,3 C 93 % 1 lf 1023,1 hPa 0,0 l/m 0 min 0 min 9 W/m 14,6 km/h (3 Bft) 97,87 %
26.01.2016 09:08 9,9 C 10,0 C 8,3 C 93 % 1 lf 1023,1 hPa 0,0 l/m 0 min 0 min 9 W/m 12,6 km/h (3 Bft) 93,62 %
26.01.2016 09:10 9,9 C 10,0 C 8,3 C 93 % 1 lf 1023,2 hPa 0,0 l/m 0 min 0 min 9 W/m 18,8 km/h (3 Bft) 97,83 %
26.01.2016 09:12 9,9 C 10,0 C 8,3 C 93 % 0 lf 1023,1 hPa 0,0 l/m 0 min 0 min 9 W/m 16,7 km/h (3 Bft) 95,74 %
26.01.2016 09:14 9,9 C 10,0 C 8,3 C 93 % 1 lf 1023,1 hPa 0,0 l/m 0 min 0 min 9 W/m 18,8 km/h (3 Bft) 96,15 %
26.01.2016 09:16 9,9 C 10,0 C 8,3 C 93 % 1 lf 1023,0 hPa 0,0 l/m 0 min 0 min 9 W/m 14,6 km/h (3 Bft) 93,62 %
26.01.2016 09:18 9,9 C 10,0 C 8,3 C 93 % 0 lf 1023,0 hPa 0,0 l/m 0 min 0 min 7 W/m 18,8 km/h (3 Bft) 97,87 %
26.01.2016 09:20 9,9 C 10,0 C 8,3 C 93 % 2 lf 1023,0 hPa 0,0 l/m 0 min 2 min 7 W/m 14,6 km/h (3 Bft) 95,65 %
26.01.2016 09:22 9,9 C 10,0 C 8,3 C 93 % 4 lf 1023,0 hPa 0,0 l/m 0 min 2 min 7 W/m 20,9 km/h (4 Bft) 97,87 %
26.01.2016 09:24 9,9 C 10,0 C 8,3 C 93 % 3 lf 1023,0 hPa 0,0 l/m 0 min 2 min 9 W/m 14,6 km/h (3 Bft) 100,00 %
26.01.2016 09:26 9,9 C 10,0 C 8,3 C 93 % 3 lf 1022,9 hPa 0,0 l/m 0 min 0 min 10 W/m 16,7 km/h (3 Bft) 97,87 %
26.01.2016 09:28 9,9 C 10,0 C 8,3 C 93 % 2 lf 1022,9 hPa 0,0 l/m 0 min 2 min 14 W/m 12,6 km/h (3 Bft) 95,74 %
26.01.2016 09:30 9,9 C 10,0 C 8,3 C 93 % 3 lf 1023,0 hPa 0,0 l/m 0 min 2 min 12 W/m 14,6 km/h (3 Bft) 95,74 %
26.01.2016 09:32 9,9 C 10,0 C 8,3 C 93 % 2 lf 1023,0 hPa 0,0 l/m 0 min 0 min 11 W/m 12,6 km/h (3 Bft) 95,65 %
26.01.2016 09:34 9,9 C 10,0 C 8,3 C 93 % 1 lf 1023,0 hPa 0,0 l/m 0 min 0 min 11 W/m 18,8 km/h (3 Bft) 93,62 %
26.01.2016 09:36 9,9 C 10,0 C 8,3 C 93 % 3 lf 1022,9 hPa 0,0 l/m 0 min 0 min 13 W/m 16,7 km/h (3 Bft) 97,87 %
26.01.2016 09:38 9,9 C 10,0 C 8,3 C 93 % 3 lf 1022,9 hPa 0,0 l/m 0 min 2 min 12 W/m 14,6 km/h (3 Bft) 95,74 %
26.01.2016 09:40 9,9 C 10,0 C 8,3 C 93 % 3 lf 1022,8 hPa 0,0 l/m 0 min 0 min 14 W/m 14,6 km/h (3 Bft) 97,87 %
26.01.2016 09:42 9,9 C 10,0 C 8,3 C 93 % 2 lf 1022,9 hPa 0,0 l/m 0 min 0 min 15 W/m 12,6 km/h (3 Bft) 97,87 %
26.01.2016 09:44 9,9 C 10,0 C 8,3 C 93 % 1 lf 1022,9 hPa 0,0 l/m 0 min 0 min 19 W/m 14,6 km/h (3 Bft) 97,83 %
26.01.2016 09:46 9,9 C 10,0 C 8,3 C 93 % 0 lf 1022,8 hPa 0,0 l/m 0 min 0 min 19 W/m 12,6 km/h (3 Bft) 95,74 %
26.01.2016 09:48 9,9 C 10,0 C 8,3 C 93 % 1 lf 1022,9 hPa 0,0 l/m 0 min 0 min 17 W/m 8,4 km/h (2 Bft) 97,87 %
26.01.2016 09:50 9,9 C 10,0 C 8,3 C 93 % 1 lf 1022,9 hPa 0,0 l/m 0 min 0 min 14 W/m 12,6 km/h (3 Bft) 93,62 %
26.01.2016 09:52 9,9 C 10,0 C 8,3 C 93 % 0 lf 1022,8 hPa 0,0 l/m 0 min 0 min 14 W/m 14,6 km/h (3 Bft) 95,74 %
26.01.2016 09:54 9,9 C 10,0 C 8,3 C 93 % 0 lf 1022,7 hPa 0,0 l/m 0 min 0 min 20 W/m 12,6 km/h (3 Bft) 97,87 %
26.01.2016 09:56 9,9 C 10,0 C 8,3 C 93 % 1 lf 1022,7 hPa 0,0 l/m 0 min 0 min 19 W/m 8,4 km/h (2 Bft) 95,65 %
26.01.2016 09:58 9,9 C 10,0 C 8,3 C 94 % 1 lf 1022,7 hPa 0,0 l/m 0 min 0 min 19 W/m 12,6 km/h (3 Bft) 95,74 %
26.01.2016 10:00 9,9 C 10,0 C 8,3 C 94 % 0 lf 1022,7 hPa 0,0 l/m 0 min 0 min 19 W/m 14,6 km/h (3 Bft) 97,87 %
26.01.2016 10:02 9,9 C 10,0 C 8,3 C 94 % 0 lf 1022,7 hPa 0,0 l/m 0 min 0 min 24 W/m 12,6 km/h (3 Bft) 97,87 %
26.01.2016 10:04 9,9 C 10,0 C 8,3 C 94 % 0 lf 1022,7 hPa 0,0 l/m 0 min 0 min 23 W/m 10,5 km/h (2 Bft) 95,74 %
26.01.2016 10:06 9,9 C 10,0 C 8,3 C 94 % 0 lf 1022,5 hPa 0,0 l/m 0 min 0 min 22 W/m 14,6 km/h (3 Bft) 100,00 %
26.01.2016 10:08 10,0 C 10,0 C 8,3 C 94 % 0 lf 1022,5 hPa 0,0 l/m 0 min 0 min 22 W/m 14,6 km/h (3 Bft) 100,00 %
26.01.2016 10:10 10,0 C 10,6 C 8,3 C 94 % 1 lf 1022,5 hPa 0,0 l/m 0 min 0 min 24 W/m 23,0 km/h (4 Bft) 95,74 %
26.01.2016 10:12 10,0 C 10,0 C 8,3 C 94 % 3 lf 1022,4 hPa 0,0 l/m 0 min 2 min 32 W/m 20,9 km/h (4 Bft) 100,00 %
26.01.2016 10:14 10,0 C 10,0 C 8,3 C 94 % 4 lf 1022,4 hPa 0,0 l/m 0 min 2 min 30 W/m 20,9 km/h (4 Bft) 97,87 %
26.01.2016 10:16 10,0 C 10,0 C 8,3 C 94 % 3 lf 1022,5 hPa 0,0 l/m 0 min 0 min 23 W/m 23,0 km/h (4 Bft) 97,87 %
26.01.2016 10:18 10,0 C 10,0 C 8,3 C 94 % 2 lf 1022,6 hPa 0,0 l/m 0 min 2 min 20 W/m 12,6 km/h (3 Bft) 100,00 %
26.01.2016 10:20 10,1 C 10,0 C 8,3 C 94 % 2 lf 1022,6 hPa 0,0 l/m 0 min 0 min 16 W/m 18,8 km/h (3 Bft) 97,87 %
26.01.2016 10:22 10,1 C 10,0 C 8,3 C 94 % 2 lf 1022,5 hPa 0,0 l/m 0 min 0 min 18 W/m 18,8 km/h (3 Bft) 95,74 %
26.01.2016 10:24 10,1 C 10,0 C 8,3 C 94 % 1 lf 1022,5 hPa 0,0 l/m 0 min 0 min 24 W/m 16,7 km/h (3 Bft) 97,87 %
26.01.2016 10:26 10,1 C 10,0 C 8,3 C 94 % 0 lf 1022,4 hPa 0,0 l/m 0 min 0 min 27 W/m 12,6 km/h (3 Bft) 95,74 %
26.01.2016 10:28 10,1 C 10,0 C 8,3 C 94 % 1 lf 1022,3 hPa 0,0 l/m 0 min 0 min 33 W/m 14,6 km/h (3 Bft) 97,87 %
26.01.2016 10:30 10,1 C 10,0 C 8,3 C 94 % 0 lf 1022,2 hPa 0,0 l/m 0 min 0 min 38 W/m 18,8 km/h (3 Bft) 95,65 %
26.01.2016 10:32 10,1 C 10,0 C 8,9 C 94 % 0 lf 1022,2 hPa 0,0 l/m 0 min 0 min 37 W/m 18,8 km/h (3 Bft) 97,87 %
26.01.2016 10:34 10,1 C 10,6 C 8,9 C 94 % 0 lf 1022,2 hPa 0,0 l/m 0 min 0 min 39 W/m 27,2 km/h (4 Bft) 97,87 %
26.01.2016 10:36 10,1 C 10,6 C 8,9 C 94 % 0 lf 1022,2 hPa 0,0 l/m 0 min 0 min 42 W/m 10,5 km/h (2 Bft) 97,87 %
26.01.2016 10:38 10,1 C 10,6 C 8,9 C 94 % 0 lf 1022,1 hPa 0,0 l/m 0 min 0 min 61 W/m 16,7 km/h (3 Bft) 95,74 %
26.01.2016 10:40 10,1 C 10,6 C 8,9 C 94 % 0 lf 1022,2 hPa 0,0 l/m 0 min 0 min 65 W/m 16,7 km/h (3 Bft) 95,74 %
26.01.2016 10:42 10,1 C 10,6 C 8,9 C 94 % 0 lf 1022,2 hPa 0,0 l/m 0 min 0 min 53 W/m 12,6 km/h (3 Bft) 93,48 %
26.01.2016 10:44 10,2 C 10,6 C 8,9 C 94 % 0 lf 1022,1 hPa 0,0 l/m 0 min 0 min 54 W/m 8,4 km/h (2 Bft) 95,74 %
26.01.2016 10:46 10,2 C 11,1 C 8,9 C 94 % 0 lf 1022,1 hPa 0,0 l/m 0 min 0 min 60 W/m 16,7 km/h (3 Bft) 95,74 %
26.01.2016 10:48 10,2 C 11,1 C 8,9 C 94 % 0 lf 1022,2 hPa 0,0 l/m 0 min 0 min 56 W/m 18,8 km/h (3 Bft) 95,74 %
26.01.2016 10:50 10,2 C 11,1 C 8,9 C 94 % 0 lf 1022,2 hPa 0,0 l/m 0 min 0 min 63 W/m 18,8 km/h (3 Bft) 95,74 %
26.01.2016 10:52 10,2 C 11,1 C 9,4 C 95 % 0 lf 1022,1 hPa 0,0 l/m 0 min 0 min 69 W/m 14,6 km/h (3 Bft) 95,74 %
26.01.2016 10:54 10,2 C 11,1 C 9,4 C 95 % 0 lf 1022,2 hPa 0,0 l/m 0 min 0 min 67 W/m 14,6 km/h (3 Bft) 95,65 %
26.01.2016 10:56 10,3 C 11,1 C 9,4 C 95 % 0 lf 1022,2 hPa 0,0 l/m 0 min 0 min 57 W/m 14,6 km/h (3 Bft) 93,62 %
26.01.2016 10:58 10,3 C 11,1 C 9,4 C 95 % 0 lf 1022,2 hPa 0,0 l/m 0 min 0 min 44 W/m 18,8 km/h (3 Bft) 93,62 %
26.01.2016 11:00 10,3 C 11,1 C 9,4 C 95 % 0 lf 1022,3 hPa 0,0 l/m 0 min 0 min 41 W/m 10,5 km/h (2 Bft) 97,87 %
26.01.2016 11:02 10,3 C 11,1 C 9,4 C 95 % 0 lf 1022,2 hPa 0,0 l/m 0 min 0 min 36 W/m 10,5 km/h (2 Bft) 95,74 %
26.01.2016 11:04 10,3 C 11,1 C 9,4 C 95 % 0 lf 1022,2 hPa 0,0 l/m 0 min 0 min 36 W/m 10,5 km/h (2 Bft) 93,62 %
26.01.2016 11:06 10,3 C 11,1 C 9,4 C 95 % 0 lf 1022,2 hPa 0,0 l/m 0 min 0 min 43 W/m 10,5 km/h (2 Bft) 97,83 %
26.01.2016 11:08 10,3 C 11,1 C 9,4 C 95 % 0 lf 1022,1 hPa 0,0 l/m 0 min 0 min 39 W/m 10,5 km/h (2 Bft) 95,74 %
26.01.2016 11:10 10,4 C 11,1 C 9,4 C 95 % 0 lf 1022,1 hPa 0,0 l/m 0 min 0 min 38 W/m 16,7 km/h (3 Bft) 97,87 %
26.01.2016 11:12 10,4 C 11,1 C 9,4 C 95 % 0 lf 1022,1 hPa 0,0 l/m 0 min 0 min 34 W/m 14,6 km/h (3 Bft) 93,62 %
26.01.2016 11:14 10,4 C 11,1 C 9,4 C 95 % 0 lf 1022,1 hPa 0,0 l/m 0 min 0 min 35 W/m 16,7 km/h (3 Bft) 93,62 %
26.01.2016 11:16 10,4 C 11,1 C 9,4 C 95 % 0 lf 1022,1 hPa 0,0 l/m 0 min 0 min 33 W/m 18,8 km/h (3 Bft) 95,74 %
26.01.2016 11:18 10,4 C 11,1 C 9,4 C 95 % 0 lf 1022,1 hPa 0,0 l/m 0 min 0 min 33 W/m 14,6 km/h (3 Bft) 95,65 %
26.01.2016 11:20 10,4 C 11,1 C 9,4 C 95 % 0 lf 1022,1 hPa 0,0 l/m 0 min 0 min 34 W/m 20,9 km/h (4 Bft) 93,62 %
26.01.2016 11:22 10,4 C 11,1 C 9,4 C 95 % 0 lf 1022,2 hPa 0,0 l/m 0 min 0 min 32 W/m 20,9 km/h (4 Bft) 95,74 %
26.01.2016 11:24 10,4 C 11,1 C 9,4 C 95 % 0 lf 1022,1 hPa 0,0 l/m 0 min 0 min 32 W/m 18,8 km/h (3 Bft) 93,62 %
26.01.2016 11:26 10,4 C 11,1 C 9,4 C 95 % 0 lf 1022,1 hPa 0,0 l/m 0 min 0 min 36 W/m 14,6 km/h (3 Bft) 95,74 %
26.01.2016 11:28 10,4 C 11,1 C 9,4 C 94 % 0 lf 1022,1 hPa 0,0 l/m 0 min 0 min 38 W/m 16,7 km/h (3 Bft) 95,74 %
26.01.2016 11:30 10,4 C 11,1 C 9,4 C 94 % 0 lf 1022,0 hPa 0,0 l/m 0 min 0 min 35 W/m 16,7 km/h (3 Bft) 95,65 %
26.01.2016 11:32 10,4 C 11,1 C 9,4 C 94 % 0 lf 1022,0 hPa 0,0 l/m 0 min 0 min 42 W/m 16,7 km/h (3 Bft) 87,23 %
26.01.2016 11:34 10,5 C 11,1 C 9,4 C 94 % 0 lf 1021,8 hPa 0,0 l/m 0 min 0 min 45 W/m 18,8 km/h (3 Bft) 93,62 %
26.01.2016 11:36 10,5 C 11,1 C 9,4 C 94 % 0 lf 1021,9 hPa 0,0 l/m 0 min 0 min 35 W/m 10,5 km/h (2 Bft) 91,49 %
26.01.2016 11:38 10,5 C 11,1 C 9,4 C 94 % 0 lf 1021,9 hPa 0,0 l/m 0 min 0 min 31 W/m 23,0 km/h (4 Bft) 95,74 %
26.01.2016 11:40 10,5 C 11,1 C 9,4 C 94 % 0 lf 1021,9 hPa 0,0 l/m 0 min 0 min 35 W/m 14,6 km/h (3 Bft) 95,65 %
26.01.2016 11:42 10,5 C 11,1 C 9,4 C 94 % 0 lf 1021,9 hPa 0,0 l/m 0 min 0 min 38 W/m 16,7 km/h (3 Bft) 91,49 %
26.01.2016 11:44 10,5 C 11,1 C 9,4 C 94 % 0 lf 1021,8 hPa 0,0 l/m 0 min 0 min 37 W/m 16,7 km/h (3 Bft) 95,74 %
26.01.2016 11:46 10,5 C 11,1 C 9,4 C 94 % 0 lf 1021,8 hPa 0,0 l/m 0 min 0 min 31 W/m 14,6 km/h (3 Bft) 95,74 %
26.01.2016 11:48 10,5 C 11,1 C 9,4 C 94 % 0 lf 1021,7 hPa 0,0 l/m 0 min 0 min 28 W/m 12,6 km/h (3 Bft) 93,62 %
26.01.2016 11:50 10,5 C 11,1 C 9,4 C 94 % 0 lf 1021,7 hPa 0,0 l/m 0 min 0 min 36 W/m 18,8 km/h (3 Bft) 93,62 %
26.01.2016 11:52 10,6 C 11,1 C 9,4 C 94 % 0 lf 1021,7 hPa 0,0 l/m 0 min 0 min 43 W/m 18,8 km/h (3 Bft) 97,83 %
26.01.2016 11:54 10,6 C 11,1 C 9,4 C 94 % 0 lf 1021,7 hPa 0,0 l/m 0 min 0 min 40 W/m 18,8 km/h (3 Bft) 97,87 %
26.01.2016 11:56 10,6 C 11,1 C 9,4 C 94 % 0 lf 1021,6 hPa 0,0 l/m 0 min 0 min 44 W/m 18,8 km/h (3 Bft) 95,74 %
26.01.2016 11:58 10,6 C 11,1 C 9,4 C 94 % 0 lf 1021,6 hPa 0,0 l/m 0 min 0 min 48 W/m 14,6 km/h (3 Bft) 93,62 %
26.01.2016 12:00 10,6 C 11,1 C 9,4 C 94 % 0 lf 1021,5 hPa 0,0 l/m 0 min 0 min 48 W/m 14,6 km/h (3 Bft) 95,74 %
26.01.2016 12:02 10,6 C 11,1 C 9,4 C 94 % 0 lf 1021,6 hPa 0,0 l/m 0 min 0 min 45 W/m 23,0 km/h (4 Bft) 95,74 %
26.01.2016 12:04 10,6 C 11,1 C 9,4 C 94 % 0 lf 1021,5 hPa 0,0 l/m 0 min 0 min 46 W/m 10,5 km/h (2 Bft) 97,83 %
26.01.2016 12:06 10,6 C 11,1 C 9,4 C 94 % 0 lf 1021,5 hPa 0,0 l/m 0 min 0 min 51 W/m 12,6 km/h (3 Bft) 97,87 %
26.01.2016 12:08 10,6 C 11,1 C 9,4 C 94 % 0 lf 1021,5 hPa 0,0 l/m 0 min 0 min 53 W/m 12,6 km/h (3 Bft) 93,62 %
26.01.2016 12:10 10,6 C 11,1 C 9,4 C 94 % 0 lf 1021,5 hPa 0,0 l/m 0 min 0 min 58 W/m 14,6 km/h (3 Bft) 97,87 %
26.01.2016 12:12 10,6 C 11,1 C 9,4 C 94 % 0 lf 1021,5 hPa 0,0 l/m 0 min 0 min 56 W/m 16,7 km/h (3 Bft) 95,74 %
26.01.2016 12:14 10,6 C 11,1 C 9,4 C 94 % 0 lf 1021,5 hPa 0,0 l/m 0 min 0 min 50 W/m 14,6 km/h (3 Bft) 97,87 %
26.01.2016 12:16 10,7 C 11,1 C 9,4 C 94 % 0 lf 1021,4 hPa 0,0 l/m 0 min 0 min 54 W/m 16,7 km/h (3 Bft) 97,83 %
26.01.2016 12:18 10,7 C 11,1 C 9,4 C 94 % 0 lf 1021,4 hPa 0,0 l/m 0 min 0 min 45 W/m 14,6 km/h (3 Bft) 91,49 %
26.01.2016 12:20 10,7 C 11,1 C 9,4 C 94 % 0 lf 1021,4 hPa 0,0 l/m 0 min 0 min 42 W/m 10,5 km/h (2 Bft) 93,62 %
26.01.2016 12:22 10,7 C 11,1 C 9,4 C 94 % 0 lf 1021,3 hPa 0,0 l/m 0 min 0 min 43 W/m 16,7 km/h (3 Bft) 93,62 %
26.01.2016 12:24 10,7 C 11,1 C 9,4 C 94 % 0 lf 1021,2 hPa 0,0 l/m 0 min 0 min 46 W/m 14,6 km/h (3 Bft) 95,74 %
26.01.2016 12:26 10,7 C 11,1 C 9,4 C 94 % 0 lf 1021,3 hPa 0,0 l/m 0 min 0 min 47 W/m 14,6 km/h (3 Bft) 93,62 %
26.01.2016 12:28 10,7 C 11,1 C 9,4 C 94 % 0 lf 1021,3 hPa 0,0 l/m 0 min 0 min 43 W/m 23,0 km/h (4 Bft) 95,65 %
26.01.2016 12:30 10,7 C 11,1 C 9,4 C 94 % 0 lf 1021,1 hPa 0,0 l/m 0 min 0 min 51 W/m 18,8 km/h (3 Bft) 95,74 %
26.01.2016 12:32 10,7 C 11,1 C 9,4 C 94 % 0 lf 1021,0 hPa 0,0 l/m 0 min 0 min 59 W/m 16,7 km/h (3 Bft) 95,74 %
26.01.2016 12:34 10,7 C 11,1 C 10,0 C 94 % 0 lf 1020,9 hPa 0,0 l/m 0 min 0 min 69 W/m 10,5 km/h (2 Bft) 95,74 %
26.01.2016 12:36 10,7 C 11,7 C 10,0 C 94 % 0 lf 1020,9 hPa 0,0 l/m 0 min 0 min 67 W/m 20,9 km/h (4 Bft) 93,62 %
26.01.2016 12:38 10,7 C 11,7 C 10,0 C 94 % 0 lf 1020,8 hPa 0,0 l/m 0 min 0 min 59 W/m 12,6 km/h (3 Bft) 93,48 %
26.01.2016 12:40 10,7 C 11,7 C 10,0 C 94 % 0 lf 1020,7 hPa 0,0 l/m 0 min 0 min 59 W/m 14,6 km/h (3 Bft) 93,62 %
26.01.2016 12:42 10,7 C 11,7 C 10,0 C 94 % 0 lf 1020,6 hPa 0,0 l/m 0 min 0 min 60 W/m 14,6 km/h (3 Bft) 95,74 %
26.01.2016 12:44 10,8 C 11,7 C 10,0 C 94 % 0 lf 1020,7 hPa 0,0 l/m 0 min 0 min 53 W/m 10,5 km/h (2 Bft) 95,74 %
26.01.2016 12:46 10,8 C 11,1 C 10,0 C 94 % 0 lf 1020,6 hPa 0,0 l/m 0 min 0 min 44 W/m 12,6 km/h (3 Bft) 97,87 %
26.01.2016 12:48 10,8 C 11,1 C 10,0 C 94 % 0 lf 1020,8 hPa 0,0 l/m 0 min 0 min 44 W/m 16,7 km/h (3 Bft) 91,49 %
26.01.2016 12:50 10,8 C 11,1 C 10,0 C 94 % 0 lf 1020,8 hPa 0,0 l/m 0 min 0 min 41 W/m 23,0 km/h (4 Bft) 95,65 %
26.01.2016 12:52 10,8 C 11,1 C 10,0 C 94 % 0 lf 1020,8 hPa 0,0 l/m 0 min 0 min 44 W/m 18,8 km/h (3 Bft) 95,74 %
26.01.2016 12:54 10,8 C 11,7 C 10,0 C 94 % 0 lf 1020,8 hPa 0,0 l/m 0 min 0 min 53 W/m 12,6 km/h (3 Bft) 97,87 %
26.01.2016 12:56 10,8 C 11,7 C 10,0 C 94 % 0 lf 1020,7 hPa 0,0 l/m 0 min 0 min 55 W/m 10,5 km/h (2 Bft) 93,62 %
26.01.2016 12:58 10,8 C 11,7 C 10,0 C 94 % 0 lf 1020,7 hPa 0,0 l/m 0 min 0 min 47 W/m 14,6 km/h (3 Bft) 100,00 %
26.01.2016 13:00 10,8 C 11,7 C 10,0 C 94 % 0 lf 1020,6 hPa 0,0 l/m 0 min 0 min 46 W/m 10,5 km/h (2 Bft) 100,00 %
26.01.2016 13:02 10,8 C 11,7 C 10,0 C 94 % 1 lf 1020,7 hPa 0,0 l/m 0 min 0 min 60 W/m 25,1 km/h (4 Bft) 100,00 %
26.01.2016 13:04 10,8 C 11,7 C 10,0 C 94 % 0 lf 1020,7 hPa 0,0 l/m 0 min 0 min 69 W/m 18,8 km/h (3 Bft) 95,74 %
26.01.2016 13:06 10,8 C 11,7 C 10,0 C 94 % 0 lf 1020,6 hPa 0,0 l/m 0 min 0 min 66 W/m 23,0 km/h (4 Bft) 97,87 %
26.01.2016 13:08 10,8 C 11,7 C 10,0 C 94 % 0 lf 1020,6 hPa 0,0 l/m 0 min 0 min 60 W/m 27,2 km/h (4 Bft) 97,87 %
26.01.2016 13:10 10,8 C 11,7 C 10,0 C 94 % 0 lf 1020,6 hPa 0,0 l/m 0 min 0 min 69 W/m 16,7 km/h (3 Bft) 97,87 %
26.01.2016 13:12 10,9 C 11,7 C 10,0 C 94 % 0 lf 1020,5 hPa 0,0 l/m 0 min 0 min 74 W/m 20,9 km/h (4 Bft) 97,87 %
26.01.2016 13:14 10,9 C 11,7 C 10,0 C 94 % 0 lf 1020,5 hPa 0,0 l/m 0 min 0 min 87 W/m 27,2 km/h (4 Bft) 95,65 %
26.01.2016 13:16 10,9 C 12,2 C 10,6 C 94 % 0 lf 1020,4 hPa 0,0 l/m 0 min 0 min 117 W/m 14,6 km/h (3 Bft) 97,87 %
26.01.2016 13:18 10,9 C 12,2 C 10,6 C 94 % 0 lf 1020,5 hPa 0,0 l/m 0 min 0 min 110 W/m 23,0 km/h (4 Bft) 97,87 %
26.01.2016 13:20 11,0 C 12,2 C 10,6 C 94 % 0 lf 1020,6 hPa 0,0 l/m 0 min 0 min 73 W/m 18,8 km/h (3 Bft) 100,00 %
26.01.2016 13:22 11,0 C 11,7 C 10,0 C 93 % 0 lf 1020,5 hPa 0,0 l/m 0 min 0 min 56 W/m 16,7 km/h (3 Bft) 97,87 %
26.01.2016 13:24 11,0 C 11,7 C 10,0 C 93 % 0 lf 1020,5 hPa 0,0 l/m 0 min 0 min 46 W/m 20,9 km/h (4 Bft) 97,87 %
26.01.2016 13:26 11,1 C 11,7 C 10,0 C 93 % 0 lf 1020,6 hPa 0,0 l/m 0 min 0 min 39 W/m 18,8 km/h (3 Bft) 100,00 %
26.01.2016 13:28 11,1 C 11,7 C 10,0 C 93 % 1 lf 1020,5 hPa 0,0 l/m 0 min 0 min 35 W/m 27,2 km/h (4 Bft) 100,00 %
26.01.2016 13:30 11,1 C 11,7 C 10,0 C 93 % 0 lf 1020,5 hPa 0,0 l/m 0 min 0 min 93 W/m 23,0 km/h (4 Bft) 100,00 %
26.01.2016 13:32 11,1 C 11,7 C 10,0 C 93 % 0 lf 1020,5 hPa 0,0 l/m 0 min 0 min 79 W/m 25,1 km/h (4 Bft) 97,87 %
26.01.2016 13:34 11,1 C 12,2 C 10,0 C 93 % 0 lf 1020,5 hPa 0,0 l/m 0 min 0 min 80 W/m 23,0 km/h (4 Bft) 97,87 %
26.01.2016 13:36 11,1 C 12,2 C 10,6 C 93 % 0 lf 1020,4 hPa 0,0 l/m 0 min 0 min 95 W/m 31,4 km/h (5 Bft) 100,00 %
26.01.2016 13:38 11,1 C 12,2 C 10,6 C 93 % 0 lf 1020,5 hPa 0,0 l/m 0 min 0 min 86 W/m 25,1 km/h (4 Bft) 100,00 %
26.01.2016 13:40 11,2 C 12,2 C 10,6 C 92 % 0 lf 1020,5 hPa 0,0 l/m 0 min 0 min 73 W/m 16,7 km/h (3 Bft) 100,00 %
26.01.2016 13:42 11,2 C 12,2 C 10,6 C 92 % 0 lf 1020,4 hPa 0,0 l/m 0 min 0 min 71 W/m 25,1 km/h (4 Bft) 100,00 %
26.01.2016 13:44 11,2 C 12,2 C 10,0 C 92 % 0 lf 1020,5 hPa 0,0 l/m 0 min 0 min 60 W/m 25,1 km/h (4 Bft) 100,00 %
26.01.2016 13:46 11,2 C 11,7 C 10,0 C 92 % 0 lf 1020,5 hPa 0,0 l/m 0 min 0 min 66 W/m 29,3 km/h (5 Bft) 100,00 %
26.01.2016 13:48 11,2 C 12,2 C 10,0 C 92 % 0 lf 1020,4 hPa 0,0 l/m 0 min 0 min 97 W/m 23,0 km/h (4 Bft) 95,74 %
26.01.2016 13:50 11,2 C 12,2 C 10,6 C 92 % 0 lf 1020,4 hPa 0,0 l/m 0 min 0 min 137 W/m 27,2 km/h (4 Bft) 95,65 %
26.01.2016 13:52 11,2 C 12,8 C 10,6 C 91 % 0 lf 1020,4 hPa 0,0 l/m 2 min 0 min 165 W/m 25,1 km/h (4 Bft) 100,00 %
26.01.2016 13:54 11,3 C 12,8 C 10,6 C 92 % 0 lf 1020,4 hPa 0,0 l/m 2 min 0 min 174 W/m 25,1 km/h (4 Bft) 97,87 %
26.01.2016 13:56 11,3 C 13,3 C 10,6 C 91 % 0 lf 1020,4 hPa 0,0 l/m 2 min 0 min 180 W/m 18,8 km/h (3 Bft) 97,87 %
26.01.2016 13:58 11,3 C 14,4 C 10,6 C 91 % 0 lf 1020,3 hPa 0,0 l/m 2 min 0 min 253 W/m 27,2 km/h (4 Bft) 93,62 %
26.01.2016 14:00 11,4 C 15,0 C 10,6 C 91 % 0 lf 1020,3 hPa 0,0 l/m 2 min 0 min 274 W/m 29,3 km/h (5 Bft) 100,00 %
26.01.2016 14:02 11,4 C 15,0 C 10,6 C 91 % 0 lf 1020,3 hPa 0,0 l/m 2 min 0 min 267 W/m 41,8 km/h (6 Bft) 100,00 %
26.01.2016 14:04 11,4 C 14,4 C 11,1 C 90 % 0 lf 1020,3 hPa 0,0 l/m 2 min 0 min 244 W/m 23,0 km/h (4 Bft) 100,00 %
26.01.2016 14:06 11,5 C 13,9 C 11,1 C 90 % 0 lf 1020,2 hPa 0,0 l/m 2 min 0 min 188 W/m 25,1 km/h (4 Bft) 95,74 %
26.01.2016 14:08 11,6 C 13,3 C 11,1 C 90 % 0 lf 1020,2 hPa 0,0 l/m 2 min 0 min 154 W/m 23,0 km/h (4 Bft) 93,62 %
26.01.2016 14:10 11,6 C 12,8 C 10,6 C 90 % 0 lf 1020,3 hPa 0,0 l/m 0 min 0 min 125 W/m 29,3 km/h (5 Bft) 97,87 %
26.01.2016 14:12 11,6 C 12,8 C 10,6 C 89 % 0 lf 1020,3 hPa 0,0 l/m 0 min 0 min 89 W/m 25,1 km/h (4 Bft) 97,83 %
26.01.2016 14:14 11,7 C 12,8 C 10,6 C 89 % 0 lf 1020,2 hPa 0,0 l/m 0 min 0 min 76 W/m 25,1 km/h (4 Bft) 97,87 %
26.01.2016 14:16 11,6 C 12,2 C 10,6 C 89 % 0 lf 1020,3 hPa 0,0 l/m 0 min 0 min 57 W/m 29,3 km/h (5 Bft) 95,74 %
26.01.2016 14:18 11,6 C 12,2 C 10,6 C 89 % 0 lf 1020,3 hPa 0,0 l/m 0 min 0 min 49 W/m 20,9 km/h (4 Bft) 95,74 %
26.01.2016 14:20 11,6 C 12,2 C 10,0 C 89 % 0 lf 1020,3 hPa 0,0 l/m 0 min 0 min 41 W/m 27,2 km/h (4 Bft) 97,87 %
26.01.2016 14:22 11,6 C 12,2 C 10,0 C 88 % 0 lf 1020,3 hPa 0,0 l/m 0 min 0 min 46 W/m 29,3 km/h (5 Bft) 95,74 %
26.01.2016 14:24 11,6 C 11,7 C 10,0 C 88 % 0 lf 1020,4 hPa 0,0 l/m 0 min 0 min 44 W/m 23,0 km/h (4 Bft) 93,48 %
26.01.2016 14:26 11,6 C 11,7 C 10,0 C 88 % 0 lf 1020,3 hPa 0,0 l/m 0 min 0 min 57 W/m 23,0 km/h (4 Bft) 91,49 %
26.01.2016 14:28 11,6 C 12,2 C 10,0 C 88 % 0 lf 1020,2 hPa 0,0 l/m 0 min 0 min 69 W/m 27,2 km/h (4 Bft) 89,36 %
26.01.2016 14:30 11,5 C 12,2 C 10,0 C 88 % 0 lf 1020,2 hPa 0,0 l/m 0 min 0 min 60 W/m 31,4 km/h (5 Bft) 93,62 %
26.01.2016 14:32 11,5 C 12,2 C 10,0 C 88 % 0 lf 1020,2 hPa 0,0 l/m 0 min 0 min 76 W/m 31,4 km/h (5 Bft) 93,62 %
26.01.2016 14:34 11,5 C 12,2 C 10,6 C 88 % 0 lf 1020,1 hPa 0,0 l/m 0 min 0 min 98 W/m 29,3 km/h (5 Bft) 91,49 %
26.01.2016 14:36 11,5 C 12,2 C 10,6 C 88 % 0 lf 1020,1 hPa 0,0 l/m 0 min 0 min 117 W/m 29,3 km/h (5 Bft) 93,48 %
26.01.2016 14:38 11,5 C 12,2 C 10,6 C 88 % 0 lf 1020,1 hPa 0,0 l/m 0 min 0 min 129 W/m 31,4 km/h (5 Bft) 93,62 %
26.01.2016 14:40 11,5 C 12,2 C 10,6 C 88 % 0 lf 1020,1 hPa 0,0 l/m 0 min 0 min 133 W/m 35,6 km/h (5 Bft) 93,62 %
26.01.2016 14:42 11,5 C 12,2 C 10,6 C 87 % 0 lf 1020,0 hPa 0,0 l/m 2 min 0 min 137 W/m 35,6 km/h (5 Bft) 93,62 %
26.01.2016 14:44 11,5 C 12,2 C 10,6 C 87 % 0 lf 1020,0 hPa 0,0 l/m 2 min 0 min 134 W/m 29,3 km/h (5 Bft) 93,62 %
26.01.2016 14:46 11,5 C 12,8 C 10,6 C 87 % 0 lf 1020,0 hPa 0,0 l/m 2 min 0 min 149 W/m 31,4 km/h (5 Bft) 95,74 %
26.01.2016 14:48 11,5 C 12,8 C 10,6 C 87 % 0 lf 1020,0 hPa 0,0 l/m 2 min 0 min 135 W/m 25,1 km/h (4 Bft) 93,48 %
26.01.2016 14:50 11,5 C 12,8 C 10,6 C 86 % 0 lf 1019,9 hPa 0,0 l/m 0 min 0 min 118 W/m 29,3 km/h (5 Bft) 95,74 %
26.01.2016 14:52 11,5 C 12,2 C 10,0 C 86 % 0 lf 1020,0 hPa 0,0 l/m 0 min 0 min 103 W/m 43,9 km/h (6 Bft) 95,74 %
26.01.2016 14:54 11,5 C 12,2 C 10,0 C 86 % 0 lf 1020,0 hPa 0,0 l/m 0 min 0 min 93 W/m 41,8 km/h (6 Bft) 95,74 %
26.01.2016 14:56 11,5 C 12,2 C 10,0 C 86 % 0 lf 1019,9 hPa 0,0 l/m 0 min 0 min 79 W/m 27,2 km/h (4 Bft) 93,62 %
26.01.2016 14:58 11,5 C 12,2 C 10,6 C 86 % 0 lf 1019,8 hPa 0,0 l/m 0 min 0 min 73 W/m 29,3 km/h (5 Bft) 91,49 %
26.01.2016 15:00 11,5 C 12,2 C 10,0 C 86 % 0 lf 1019,8 hPa 0,0 l/m 0 min 0 min 72 W/m 29,3 km/h (5 Bft) 91,30 %
26.01.2016 15:02 11,5 C 12,2 C 10,0 C 86 % 0 lf 1019,8 hPa 0,0 l/m 0 min 0 min 78 W/m 29,3 km/h (5 Bft) 93,62 %
26.01.2016 15:04 11,5 C 12,2 C 10,0 C 86 % 0 lf 1019,7 hPa 0,0 l/m 0 min 0 min 91 W/m 29,3 km/h (5 Bft) 95,74 %
26.01.2016 15:06 11,5 C 12,2 C 10,0 C 85 % 0 lf 1019,6 hPa 0,0 l/m 0 min 0 min 92 W/m 35,6 km/h (5 Bft) 95,74 %
26.01.2016 15:08 11,5 C 12,2 C 10,0 C 85 % 0 lf 1019,6 hPa 0,0 l/m 0 min 0 min 100 W/m 31,4 km/h (5 Bft) 93,62 %
26.01.2016 15:10 11,5 C 12,2 C 10,0 C 85 % 0 lf 1019,6 hPa 0,0 l/m 0 min 0 min 109 W/m 25,1 km/h (4 Bft) 95,65 %
26.01.2016 15:12 11,5 C 12,2 C 10,0 C 85 % 0 lf 1019,5 hPa 0,0 l/m 0 min 0 min 114 W/m 20,9 km/h (4 Bft) 91,49 %
26.01.2016 15:14 11,5 C 12,2 C 10,0 C 85 % 0 lf 1019,6 hPa 0,0 l/m 2 min 0 min 115 W/m 35,6 km/h (5 Bft) 93,62 %
26.01.2016 15:16 11,5 C 12,2 C 10,0 C 85 % 0 lf 1019,6 hPa 0,0 l/m 0 min 0 min 110 W/m 31,4 km/h (5 Bft) 91,49 %
26.01.2016 15:18 11,4 C 12,2 C 10,0 C 85 % 0 lf 1019,5 hPa 0,0 l/m 0 min 0 min 109 W/m 27,2 km/h (4 Bft) 93,62 %
26.01.2016 15:20 11,4 C 12,2 C 10,0 C 84 % 0 lf 1019,5 hPa 0,0 l/m 0 min 0 min 107 W/m 29,3 km/h (5 Bft) 95,74 %
26.01.2016 15:22 11,4 C 12,2 C 10,0 C 84 % 0 lf 1019,5 hPa 0,0 l/m 0 min 0 min 99 W/m 35,6 km/h (5 Bft) 95,65 %
26.01.2016 15:24 11,4 C 12,2 C 10,0 C 84 % 0 lf 1019,5 hPa 0,0 l/m 0 min 0 min 93 W/m 43,9 km/h (6 Bft) 91,49 %
26.01.2016 15:26 11,4 C 11,7 C 10,0 C 83 % 0 lf 1019,6 hPa 0,0 l/m 0 min 0 min 86 W/m 41,8 km/h (6 Bft) 97,87 %
26.01.2016 15:28 11,4 C 11,7 C 10,0 C 83 % 0 lf 1019,6 hPa 0,0 l/m 0 min 0 min 82 W/m 37,7 km/h (5 Bft) 97,87 %
26.01.2016 15:30 11,3 C 11,7 C 10,0 C 83 % 0 lf 1019,5 hPa 0,0 l/m 0 min 0 min 78 W/m 25,1 km/h (4 Bft) 95,74 %
26.01.2016 15:32 11,3 C 11,7 C 10,0 C 83 % 0 lf 1019,5 hPa 0,0 l/m 0 min 0 min 76 W/m 31,4 km/h (5 Bft) 93,62 %
26.01.2016 15:34 11,3 C 11,7 C 10,0 C 83 % 0 lf 1019,3 hPa 0,0 l/m 0 min 0 min 77 W/m 29,3 km/h (5 Bft) 95,65 %
26.01.2016 15:36 11,3 C 11,7 C 10,0 C 83 % 0 lf 1019,4 hPa 0,0 l/m 0 min 0 min 77 W/m 35,6 km/h (5 Bft) 97,87 %
26.01.2016 15:38 11,3 C 11,7 C 10,0 C 82 % 0 lf 1019,2 hPa 0,0 l/m 0 min 0 min 81 W/m 50,2 km/h (7 Bft) 97,87 %
26.01.2016 15:40 11,2 C 11,7 C 10,0 C 82 % 0 lf 1019,3 hPa 0,0 l/m 0 min 0 min 79 W/m 39,7 km/h (6 Bft) 95,74 %
26.01.2016 15:42 11,2 C 11,7 C 9,4 C 82 % 0 lf 1019,2 hPa 0,0 l/m 0 min 0 min 77 W/m 33,5 km/h (5 Bft) 93,62 %
26.01.2016 15:44 11,2 C 11,7 C 10,0 C 82 % 0 lf 1019,2 hPa 0,0 l/m 0 min 0 min 77 W/m 48,1 km/h (6 Bft) 97,87 %
26.01.2016 15:46 11,2 C 11,7 C 9,4 C 82 % 0 lf 1019,3 hPa 0,0 l/m 0 min 0 min 76 W/m 27,2 km/h (4 Bft) 95,65 %
26.01.2016 15:48 11,2 C 11,7 C 9,4 C 82 % 0 lf 1019,3 hPa 0,0 l/m 0 min 0 min 75 W/m 39,7 km/h (6 Bft) 100,00 %
26.01.2016 15:50 11,1 C 11,7 C 9,4 C 81 % 0 lf 1019,3 hPa 0,0 l/m 0 min 0 min 74 W/m 43,9 km/h (6 Bft) 100,00 %
26.01.2016 15:52 11,1 C 11,7 C 9,4 C 81 % 0 lf 1019,3 hPa 0,0 l/m 0 min 0 min 72 W/m 33,5 km/h (5 Bft) 97,87 %
26.01.2016 15:54 11,1 C 11,7 C 9,4 C 81 % 0 lf 1019,3 hPa 0,0 l/m 0 min 0 min 70 W/m 33,5 km/h (5 Bft) 97,87 %
26.01.2016 15:56 11,1 C 11,7 C 9,4 C 81 % 0 lf 1019,3 hPa 0,0 l/m 0 min 0 min 69 W/m 35,6 km/h (5 Bft) 100,00 %
26.01.2016 15:58 11,0 C 11,7 C 9,4 C 81 % 0 lf 1019,4 hPa 0,0 l/m 0 min 0 min 67 W/m 37,7 km/h (5 Bft) 100,00 %
26.01.2016 16:00 11,0 C 11,1 C 9,4 C 81 % 0 lf 1019,3 hPa 0,0 l/m 0 min 0 min 66 W/m 35,6 km/h (5 Bft) 100,00 %
26.01.2016 16:02 10,9 C 11,1 C 9,4 C 81 % 0 lf 1019,2 hPa 0,0 l/m 0 min 0 min 63 W/m 33,5 km/h (5 Bft) 97,87 %
26.01.2016 16:04 10,9 C 11,1 C 9,4 C 81 % 0 lf 1019,2 hPa 0,0 l/m 0 min 0 min 62 W/m 23,0 km/h (4 Bft) 97,87 %
26.01.2016 16:06 10,9 C 11,1 C 9,4 C 81 % 0 lf 1019,2 hPa 0,0 l/m 0 min 0 min 61 W/m 18,8 km/h (3 Bft) 100,00 %
26.01.2016 16:08 10,9 C 11,1 C 9,4 C 81 % 0 lf 1019,2 hPa 0,0 l/m 0 min 0 min 58 W/m 29,3 km/h (5 Bft) 100,00 %
26.01.2016 16:10 10,9 C 11,1 C 9,4 C 81 % 0 lf 1019,2 hPa 0,0 l/m 0 min 0 min 56 W/m 29,3 km/h (5 Bft) 100,00 %
26.01.2016 16:12 10,9 C 11,1 C 9,4 C 81 % 0 lf 1019,2 hPa 0,0 l/m 0 min 0 min 54 W/m 27,2 km/h (4 Bft) 97,87 %
26.01.2016 16:14 10,8 C 11,1 C 9,4 C 81 % 0 lf 1019,2 hPa 0,0 l/m 0 min 0 min 51 W/m 33,5 km/h (5 Bft) 97,87 %
26.01.2016 16:16 10,8 C 11,1 C 9,4 C 81 % 0 lf 1019,3 hPa 0,0 l/m 0 min 0 min 49 W/m 20,9 km/h (4 Bft) 97,87 %
26.01.2016 16:18 10,8 C 11,1 C 8,9 C 81 % 0 lf 1019,2 hPa 0,0 l/m 0 min 0 min 47 W/m 20,9 km/h (4 Bft) 95,74 %
26.01.2016 16:20 10,8 C 11,1 C 8,9 C 81 % 0 lf 1019,1 hPa 0,0 l/m 0 min 0 min 44 W/m 33,5 km/h (5 Bft) 97,87 %
26.01.2016 16:22 10,8 C 11,1 C 8,9 C 81 % 0 lf 1019,1 hPa 0,0 l/m 0 min 0 min 42 W/m 41,8 km/h (6 Bft) 97,83 %
26.01.2016 16:24 10,8 C 11,1 C 8,9 C 81 % 0 lf 1019,2 hPa 0,0 l/m 0 min 0 min 39 W/m 37,7 km/h (5 Bft) 97,87 %
26.01.2016 16:26 10,8 C 11,1 C 8,9 C 81 % 0 lf 1019,2 hPa 0,0 l/m 0 min 0 min 37 W/m 29,3 km/h (5 Bft) 97,87 %
26.01.2016 16:28 10,7 C 11,1 C 8,9 C 81 % 0 lf 1019,2 hPa 0,0 l/m 0 min 0 min 35 W/m 27,2 km/h (4 Bft) 97,87 %
26.01.2016 16:30 10,7 C 10,6 C 8,9 C 81 % 0 lf 1019,2 hPa 0,0 l/m 0 min 0 min 33 W/m 23,0 km/h (4 Bft) 97,87 %
26.01.2016 16:32 10,7 C 10,6 C 8,9 C 81 % 0 lf 1019,2 hPa 0,0 l/m 0 min 0 min 31 W/m 23,0 km/h (4 Bft) 95,74 %
26.01.2016 16:34 10,7 C 10,6 C 8,9 C 81 % 0 lf 1019,1 hPa 0,0 l/m 0 min 0 min 29 W/m 27,2 km/h (4 Bft) 95,65 %
26.01.2016 16:36 10,7 C 10,6 C 8,9 C 81 % 0 lf 1019,1 hPa 0,0 l/m 0 min 0 min 27 W/m 33,5 km/h (5 Bft) 97,87 %
26.01.2016 16:38 10,6 C 10,6 C 8,9 C 81 % 0 lf 1019,1 hPa 0,0 l/m 0 min 0 min 26 W/m 29,3 km/h (5 Bft) 97,87 %
26.01.2016 16:40 10,6 C 10,6 C 8,9 C 81 % 0 lf 1019,1 hPa 0,0 l/m 0 min 0 min 24 W/m 29,3 km/h (5 Bft) 97,87 %
26.01.2016 16:42 10,6 C 10,6 C 8,9 C 81 % 0 lf 1019,1 hPa 0,0 l/m 0 min 0 min 21 W/m 33,5 km/h (5 Bft) 97,87 %
26.01.2016 16:44 10,6 C 10,6 C 8,9 C 81 % 0 lf 1019,1 hPa 0,0 l/m 0 min 0 min 20 W/m 35,6 km/h (5 Bft) 93,48 %
26.01.2016 16:46 10,5 C 10,6 C 8,9 C 81 % 0 lf 1019,1 hPa 0,0 l/m 0 min 0 min 18 W/m 31,4 km/h (5 Bft) 95,74 %
26.01.2016 16:48 10,5 C 10,6 C 8,9 C 81 % 0 lf 1019,1 hPa 0,0 l/m 0 min 0 min 17 W/m 35,6 km/h (5 Bft) 97,87 %
26.01.2016 16:50 10,5 C 10,6 C 8,9 C 80 % 0 lf 1019,0 hPa 0,0 l/m 0 min 0 min 16 W/m 20,9 km/h (4 Bft) 97,87 %
26.01.2016 16:52 10,4 C 10,6 C 8,9 C 80 % 0 lf 1019,0 hPa 0,0 l/m 0 min 0 min 15 W/m 35,6 km/h (5 Bft) 100,00 %
26.01.2016 16:54 10,4 C 10,6 C 8,9 C 80 % 0 lf 1019,0 hPa 0,0 l/m 0 min 0 min 14 W/m 31,4 km/h (5 Bft) 91,49 %
26.01.2016 16:56 10,4 C 10,6 C 8,9 C 80 % 0 lf 1019,1 hPa 0,0 l/m 0 min 0 min 12 W/m 31,4 km/h (5 Bft) 100,00 %
26.01.2016 16:58 10,4 C 10,6 C 8,9 C 80 % 0 lf 1019,1 hPa 0,0 l/m 0 min 0 min 12 W/m 29,3 km/h (5 Bft) 97,87 %
26.01.2016 17:00 10,4 C 10,6 C 8,9 C 80 % 0 lf 1019,2 hPa 0,0 l/m 0 min 0 min 11 W/m 35,6 km/h (5 Bft) 100,00 %
26.01.2016 17:02 10,3 C 10,6 C 8,9 C 79 % 0 lf 1019,0 hPa 0,0 l/m 0 min 0 min 10 W/m 35,6 km/h (5 Bft) 97,87 %
26.01.2016 17:04 10,3 C 10,6 C 8,3 C 79 % 0 lf 1019,1 hPa 0,0 l/m 0 min 0 min 8 W/m 33,5 km/h (5 Bft) 95,74 %
26.01.2016 17:06 10,3 C 10,6 C 8,3 C 79 % 0 lf 1019,1 hPa 0,0 l/m 0 min 0 min 7 W/m 31,4 km/h (5 Bft) 100,00 %
26.01.2016 17:08 10,3 C 10,6 C 8,3 C 79 % 0 lf 1019,0 hPa 0,0 l/m 0 min 0 min 6 W/m 25,1 km/h (4 Bft) 97,83 %
26.01.2016 17:10 10,3 C 10,0 C 8,3 C 79 % 0 lf 1019,0 hPa 0,0 l/m 0 min 0 min 5 W/m 25,1 km/h (4 Bft) 97,87 %
26.01.2016 17:12 10,2 C 10,0 C 8,3 C 79 % 0 lf 1019,0 hPa 0,0 l/m 0 min 0 min 5 W/m 27,2 km/h (4 Bft) 97,87 %
26.01.2016 17:14 10,2 C 10,0 C 8,3 C 79 % 0 lf 1018,9 hPa 0,0 l/m 0 min 0 min 2 W/m 23,0 km/h (4 Bft) 93,62 %
26.01.2016 17:16 10,2 C 10,0 C 8,3 C 79 % 0 lf 1019,0 hPa 0,0 l/m 0 min 0 min 0 W/m 27,2 km/h (4 Bft) 97,87 %
26.01.2016 17:18 10,2 C 10,0 C 8,3 C 79 % 0 lf 1018,9 hPa 0,0 l/m 0 min 0 min 0 W/m 27,2 km/h (4 Bft) 97,87 %
26.01.2016 17:20 10,2 C 10,0 C 8,3 C 79 % 0 lf 1018,9 hPa 0,0 l/m 0 min 0 min 0 W/m 27,2 km/h (4 Bft) 97,83 %
26.01.2016 17:22 10,1 C 10,0 C 8,3 C 79 % 0 lf 1018,9 hPa 0,0 l/m 0 min 0 min 0 W/m 23,0 km/h (4 Bft) 97,87 %
26.01.2016 17:24 10,1 C 10,0 C 8,3 C 79 % 0 lf 1018,9 hPa 0,0 l/m 0 min 0 min 0 W/m 27,2 km/h (4 Bft) 97,87 %
26.01.2016 17:26 10,1 C 10,0 C 8,3 C 79 % 0 lf 1018,8 hPa 0,0 l/m 0 min 0 min 0 W/m 29,3 km/h (5 Bft) 93,62 %
26.01.2016 17:28 10,1 C 10,0 C 8,3 C 79 % 0 lf 1018,8 hPa 0,0 l/m 0 min 0 min 0 W/m 23,0 km/h (4 Bft) 95,74 %
26.01.2016 17:30 10,1 C 10,0 C 8,3 C 79 % 0 lf 1018,8 hPa 0,0 l/m 0 min 0 min 0 W/m 23,0 km/h (4 Bft) 97,87 %
26.01.2016 17:32 10,0 C 10,0 C 8,3 C 80 % 0 lf 1018,8 hPa 0,0 l/m 0 min 0 min 0 W/m 33,5 km/h (5 Bft) 97,83 %
26.01.2016 17:34 10,0 C 10,0 C 8,3 C 80 % 0 lf 1018,8 hPa 0,0 l/m 0 min 0 min 0 W/m 29,3 km/h (5 Bft) 97,87 %
26.01.2016 17:36 10,0 C 10,0 C 8,3 C 80 % 0 lf 1018,8 hPa 0,0 l/m 0 min 0 min 0 W/m 29,3 km/h (5 Bft) 97,30 %
26.01.2016 17:38 10,0 C 10,0 C 8,3 C 80 % 0 lf 1018,7 hPa 0,0 l/m 0 min 0 min 0 W/m 37,7 km/h (5 Bft) 96,30 %
26.01.2016 17:40 10,0 C 10,0 C 8,3 C 80 % 0 lf 1018,7 hPa 0,0 l/m 0 min 0 min 0 W/m 31,4 km/h (5 Bft) 96,00 %
26.01.2016 17:42 10,0 C 10,0 C 8,3 C 80 % 0 lf 1018,8 hPa 0,0 l/m 0 min 0 min 0 W/m 37,7 km/h (5 Bft) 97,22 %
26.01.2016 17:44 9,9 C 10,0 C 8,3 C 80 % 0 lf 1018,7 hPa 0,0 l/m 0 min 0 min 0 W/m 33,5 km/h (5 Bft) 97,87 %
26.01.2016 17:46 9,9 C 10,0 C 8,3 C 80 % 0 lf 1018,7 hPa 0,0 l/m 0 min 0 min 0 W/m 35,6 km/h (5 Bft) 97,87 %
26.01.2016 17:48 10,0 C 10,0 C 8,3 C 80 % 0 lf 1018,8 hPa 0,0 l/m 0 min 0 min 0 W/m 31,4 km/h (5 Bft) 95,74 %
26.01.2016 17:50 9,9 C 10,0 C 8,3 C 80 % 0 lf 1018,8 hPa 0,0 l/m 0 min 0 min 0 W/m 20,9 km/h (4 Bft) 93,62 %
26.01.2016 17:52 9,9 C 10,0 C 8,3 C 80 % 0 lf 1018,7 hPa 0,0 l/m 0 min 0 min 0 W/m 29,3 km/h (5 Bft) 95,65 %
26.01.2016 17:54 9,9 C 10,0 C 8,3 C 80 % 0 lf 1018,7 hPa 0,0 l/m 0 min 0 min 0 W/m 35,6 km/h (5 Bft) 92,73 %
26.01.2016 17:56 9,9 C 10,0 C 8,3 C 80 % 0 lf 1018,6 hPa 0,0 l/m 0 min 0 min 0 W/m 29,3 km/h (5 Bft) 97,87 %
26.01.2016 17:58 9,9 C 10,0 C 8,3 C 79 % 0 lf 1018,6 hPa 0,0 l/m 0 min 0 min 0 W/m 29,3 km/h (5 Bft) 98,00 %
26.01.2016 18:00 9,9 C 10,0 C 8,3 C 79 % 0 lf 1018,7 hPa 0,0 l/m 0 min 0 min 0 W/m 25,1 km/h (4 Bft) 93,48 %
26.01.2016 18:02 9,9 C 10,0 C 7,8 C 79 % 0 lf 1018,6 hPa 0,0 l/m 0 min 0 min 0 W/m 18,8 km/h (3 Bft) 97,37 %
26.01.2016 18:04 9,9 C 10,0 C 7,8 C 79 % 0 lf 1018,5 hPa 0,0 l/m 0 min 0 min 0 W/m 25,1 km/h (4 Bft) 95,83 %
26.01.2016 18:06 9,9 C 10,0 C 7,8 C 79 % 0 lf 1018,4 hPa 0,0 l/m 0 min 0 min 0 W/m 29,3 km/h (5 Bft) 98,11 %
26.01.2016 18:08 9,9 C 10,0 C 7,8 C 79 % 0 lf 1018,5 hPa 0,0 l/m 0 min 0 min 0 W/m 33,5 km/h (5 Bft) 93,62 %
26.01.2016 18:10 9,9 C 10,0 C 7,8 C 79 % 0 lf 1018,4 hPa 0,0 l/m 0 min 0 min 0 W/m 27,2 km/h (4 Bft) 93,62 %
26.01.2016 18:12 9,9 C 10,0 C 7,8 C 79 % 0 lf 1018,5 hPa 0,0 l/m 0 min 0 min 0 W/m 20,9 km/h (4 Bft) 91,30 %
26.01.2016 18:14 9,9 C 10,0 C 7,8 C 79 % 0 lf 1018,5 hPa 0,0 l/m 0 min 0 min 0 W/m 27,2 km/h (4 Bft) 93,62 %
26.01.2016 18:16 9,8 C 10,0 C 7,8 C 79 % 0 lf 1018,5 hPa 0,0 l/m 0 min 0 min 0 W/m 41,8 km/h (6 Bft) 94,00 %
26.01.2016 18:18 9,8 C 10,0 C 7,8 C 79 % 0 lf 1018,5 hPa 0,0 l/m 0 min 0 min 0 W/m 25,1 km/h (4 Bft) 93,62 %
26.01.2016 18:20 9,8 C 10,0 C 7,8 C 79 % 0 lf 1018,6 hPa 0,0 l/m 0 min 0 min 0 W/m 25,1 km/h (4 Bft) 89,36 %
26.01.2016 18:22 9,8 C 10,0 C 7,8 C 78 % 0 lf 1018,7 hPa 0,0 l/m 0 min 0 min 0 W/m 37,7 km/h (5 Bft) 93,62 %
26.01.2016 18:24 9,8 C 10,0 C 7,8 C 78 % 0 lf 1018,5 hPa 0,0 l/m 0 min 0 min 0 W/m 31,4 km/h (5 Bft) 93,48 %
26.01.2016 18:26 9,8 C 10,0 C 7,8 C 78 % 0 lf 1018,5 hPa 0,0 l/m 0 min 0 min 0 W/m 18,8 km/h (3 Bft) 89,36 %
26.01.2016 18:28 9,8 C 9,4 C 7,8 C 78 % 0 lf 1018,6 hPa 0,0 l/m 0 min 0 min 0 W/m 18,8 km/h (3 Bft) 91,49 %
26.01.2016 18:30 9,8 C 9,4 C 7,8 C 78 % 0 lf 1018,5 hPa 0,0 l/m 0 min 0 min 0 W/m 31,4 km/h (5 Bft) 93,62 %
26.01.2016 18:32 9,7 C 10,0 C 7,8 C 78 % 0 lf 1018,5 hPa 0,0 l/m 0 min 0 min 0 W/m 31,4 km/h (5 Bft) 93,62 %
26.01.2016 18:34 9,7 C 10,0 C 7,8 C 78 % 0 lf 1018,5 hPa 0,0 l/m 0 min 0 min 0 W/m 33,5 km/h (5 Bft) 92,11 %
26.01.2016 18:36 9,7 C 10,0 C 7,8 C 78 % 0 lf 1018,5 hPa 0,0 l/m 0 min 0 min 0 W/m 29,3 km/h (5 Bft) 90,38 %
26.01.2016 18:38 9,7 C 10,0 C 7,8 C 78 % 0 lf 1018,4 hPa 0,0 l/m 0 min 0 min 0 W/m 27,2 km/h (4 Bft) 95,74 %
26.01.2016 18:40 9,7 C 10,0 C 7,8 C 78 % 0 lf 1018,4 hPa 0,0 l/m 0 min 0 min 0 W/m 27,2 km/h (4 Bft) 95,74 %
26.01.2016 18:42 9,7 C 10,0 C 8,3 C 77 % 0 lf 1018,4 hPa 0,0 l/m 0 min 0 min 0 W/m 31,4 km/h (5 Bft) 95,74 %
26.01.2016 18:44 9,7 C 10,0 C 8,3 C 77 % 0 lf 1018,5 hPa 0,0 l/m 0 min 0 min 0 W/m 31,4 km/h (5 Bft) 95,74 %
26.01.2016 18:46 9,7 C 10,0 C 8,3 C 77 % 0 lf 1018,4 hPa 0,0 l/m 0 min 0 min 0 W/m 27,2 km/h (4 Bft) 93,62 %
26.01.2016 18:48 9,7 C 10,0 C 8,3 C 77 % 0 lf 1018,4 hPa 0,0 l/m 0 min 0 min 0 W/m 31,4 km/h (5 Bft) 93,48 %
26.01.2016 18:50 9,7 C 10,0 C 7,8 C 77 % 0 lf 1018,4 hPa 0,0 l/m 0 min 0 min 0 W/m 20,9 km/h (4 Bft) 100,00 %
26.01.2016 18:52 9,7 C 10,0 C 7,8 C 77 % 0 lf 1018,3 hPa 0,0 l/m 0 min 0 min 0 W/m 31,4 km/h (5 Bft) 95,74 %
26.01.2016 18:54 9,7 C 10,0 C 8,3 C 77 % 0 lf 1018,4 hPa 0,0 l/m 0 min 0 min 0 W/m 25,1 km/h (4 Bft) 96,00 %
26.01.2016 18:56 9,7 C 10,0 C 8,3 C 77 % 0 lf 1018,5 hPa 0,0 l/m 0 min 0 min 0 W/m 33,5 km/h (5 Bft) 95,74 %
26.01.2016 18:58 9,7 C 10,0 C 8,3 C 77 % 0 lf 1018,5 hPa 0,0 l/m 0 min 0 min 0 W/m 33,5 km/h (5 Bft) 95,65 %
26.01.2016 19:00 9,8 C 10,0 C 8,3 C 77 % 0 lf 1018,7 hPa 0,0 l/m 0 min 0 min 0 W/m 29,3 km/h (5 Bft) 95,74 %
26.01.2016 19:02 9,8 C 10,0 C 8,3 C 77 % 0 lf 1018,7 hPa 0,0 l/m 0 min 0 min 0 W/m 25,1 km/h (4 Bft) 97,22 %
26.01.2016 19:04 9,8 C 10,0 C 8,3 C 77 % 0 lf 1018,7 hPa 0,0 l/m 0 min 0 min 0 W/m 37,7 km/h (5 Bft) 98,25 %
26.01.2016 19:06 9,8 C 10,0 C 8,3 C 77 % 0 lf 1018,5 hPa 0,0 l/m 0 min 0 min 0 W/m 25,1 km/h (4 Bft) 92,11 %
26.01.2016 19:08 9,8 C 10,0 C 8,3 C 77 % 0 lf 1018,6 hPa 0,0 l/m 0 min 0 min 0 W/m 25,1 km/h (4 Bft) 93,75 %
26.01.2016 19:10 9,8 C 10,0 C 8,3 C 77 % 0 lf 1018,8 hPa 0,0 l/m 0 min 0 min 0 W/m 33,5 km/h (5 Bft) 93,62 %
26.01.2016 19:12 9,8 C 10,0 C 8,3 C 77 % 0 lf 1018,6 hPa 0,0 l/m 0 min 0 min 0 W/m 25,1 km/h (4 Bft) 97,87 %
26.01.2016 19:14 9,8 C 10,0 C 8,3 C 77 % 0 lf 1018,7 hPa 0,0 l/m 0 min 0 min 0 W/m 35,6 km/h (5 Bft) 98,15 %
26.01.2016 19:16 9,8 C 10,0 C 8,3 C 77 % 0 lf 1018,8 hPa 0,0 l/m 0 min 0 min 0 W/m 27,2 km/h (4 Bft) 95,74 %
26.01.2016 19:18 9,8 C 10,0 C 8,3 C 77 % 0 lf 1018,7 hPa 0,0 l/m 0 min 0 min 0 W/m 39,7 km/h (6 Bft) 100,00 %
26.01.2016 19:20 9,8 C 10,0 C 8,3 C 77 % 0 lf 1018,8 hPa 0,0 l/m 0 min 0 min 0 W/m 29,3 km/h (5 Bft) 100,00 %
26.01.2016 19:22 9,9 C 10,0 C 8,3 C 77 % 0 lf 1018,7 hPa 0,0 l/m 0 min 0 min 0 W/m 29,3 km/h (5 Bft) 97,83 %
26.01.2016 19:24 9,9 C 10,0 C 8,3 C 77 % 0 lf 1018,7 hPa 0,0 l/m 0 min 0 min 0 W/m 23,0 km/h (4 Bft) 100,00 %
26.01.2016 19:26 9,9 C 10,0 C 8,3 C 77 % 0 lf 1018,7 hPa 0,0 l/m 0 min 0 min 0 W/m 25,1 km/h (4 Bft) 93,62 %
26.01.2016 19:28 9,9 C 10,0 C 8,3 C 77 % 0 lf 1018,7 hPa 0,0 l/m 0 min 0 min 0 W/m 33,5 km/h (5 Bft) 97,87 %
26.01.2016 19:30 9,9 C 10,0 C 8,3 C 77 % 0 lf 1018,7 hPa 0,0 l/m 0 min 0 min 0 W/m 27,2 km/h (4 Bft) 100,00 %
26.01.2016 19:32 9,9 C 10,0 C 8,3 C 77 % 0 lf 1018,6 hPa 0,0 l/m 0 min 0 min 0 W/m 27,2 km/h (4 Bft) 100,00 %
26.01.2016 19:34 9,9 C 10,0 C 8,3 C 77 % 0 lf 1018,5 hPa 0,0 l/m 0 min 0 min 0 W/m 37,7 km/h (5 Bft) 97,44 %
26.01.2016 19:36 9,9 C 10,0 C 8,3 C 77 % 0 lf 1018,6 hPa 0,0 l/m 0 min 0 min 0 W/m 29,3 km/h (5 Bft) 95,65 %
26.01.2016 19:38 9,9 C 10,0 C 8,3 C 76 % 0 lf 1018,6 hPa 0,0 l/m 0 min 0 min 0 W/m 25,1 km/h (4 Bft) 100,00 %
26.01.2016 19:40 9,9 C 10,0 C 8,3 C 76 % 0 lf 1018,7 hPa 0,0 l/m 0 min 0 min 0 W/m 29,3 km/h (5 Bft) 97,87 %
26.01.2016 19:42 9,9 C 10,0 C 8,3 C 76 % 0 lf 1018,7 hPa 0,0 l/m 0 min 0 min 0 W/m 31,4 km/h (5 Bft) 97,87 %
26.01.2016 19:44 9,9 C 10,0 C 8,3 C 76 % 0 lf 1018,8 hPa 0,0 l/m 0 min 0 min 0 W/m 27,2 km/h (4 Bft) 100,00 %
26.01.2016 19:46 9,9 C 10,0 C 8,3 C 76 % 0 lf 1018,9 hPa 0,0 l/m 0 min 0 min 0 W/m 33,5 km/h (5 Bft) 95,74 %
26.01.2016 19:48 9,9 C 10,0 C 8,3 C 76 % 0 lf 1018,8 hPa 0,0 l/m 0 min 0 min 0 W/m 29,3 km/h (5 Bft) 100,00 %
26.01.2016 19:50 10,0 C 10,0 C 8,3 C 76 % 0 lf 1018,8 hPa 0,0 l/m 0 min 0 min 0 W/m 25,1 km/h (4 Bft) 93,62 %
26.01.2016 19:52 10,0 C 10,0 C 8,3 C 76 % 0 lf 1018,8 hPa 0,0 l/m 0 min 0 min 0 W/m 25,1 km/h (4 Bft) 97,87 %
26.01.2016 19:54 10,0 C 10,0 C 8,3 C 76 % 0 lf 1018,7 hPa 0,0 l/m 0 min 0 min 0 W/m 27,2 km/h (4 Bft) 96,36 %
26.01.2016 19:56 10,0 C 10,0 C 8,3 C 76 % 0 lf 1018,8 hPa 0,0 l/m 0 min 0 min 0 W/m 25,1 km/h (4 Bft) 95,65 %
26.01.2016 19:58 10,0 C 10,0 C 8,3 C 76 % 0 lf 1018,8 hPa 0,0 l/m 0 min 0 min 0 W/m 23,0 km/h (4 Bft) 95,74 %
26.01.2016 20:00 10,0 C 10,0 C 8,3 C 76 % 0 lf 1018,8 hPa 0,0 l/m 0 min 0 min 0 W/m 31,4 km/h (5 Bft) 93,62 %
26.01.2016 20:02 10,0 C 10,0 C 8,3 C 76 % 0 lf 1018,8 hPa 0,0 l/m 0 min 0 min 0 W/m 29,3 km/h (5 Bft) 92,86 %
26.01.2016 20:04 10,0 C 10,0 C 8,3 C 76 % 0 lf 1018,8 hPa 0,0 l/m 0 min 0 min 0 W/m 27,2 km/h (4 Bft) 95,74 %
26.01.2016 20:06 10,0 C 10,0 C 8,3 C 76 % 0 lf 1018,9 hPa 0,0 l/m 0 min 0 min 0 W/m 33,5 km/h (5 Bft) 93,18 %
26.01.2016 20:08 10,0 C 10,0 C 8,3 C 76 % 0 lf 1018,8 hPa 0,0 l/m 0 min 0 min 0 W/m 31,4 km/h (5 Bft) 95,74 %
26.01.2016 20:10 10,0 C 10,0 C 8,3 C 76 % 0 lf 1018,8 hPa 0,0 l/m 0 min 0 min 0 W/m 31,4 km/h (5 Bft) 95,74 %
26.01.2016 20:12 10,0 C 10,0 C 8,3 C 76 % 0 lf 1018,9 hPa 0,0 l/m 0 min 0 min 0 W/m 29,3 km/h (5 Bft) 95,65 %
26.01.2016 20:14 10,0 C 10,0 C 8,3 C 76 % 0 lf 1018,8 hPa 0,0 l/m 0 min 0 min 0 W/m 25,1 km/h (4 Bft) 96,00 %
26.01.2016 20:16 10,1 C 10,6 C 8,3 C 76 % 0 lf 1018,8 hPa 0,0 l/m 0 min 0 min 0 W/m 31,4 km/h (5 Bft) 96,23 %
26.01.2016 20:18 10,1 C 10,6 C 8,3 C 76 % 0 lf 1018,8 hPa 0,0 l/m 0 min 0 min 0 W/m 27,2 km/h (4 Bft) 91,49 %
26.01.2016 20:20 10,1 C 10,6 C 8,3 C 76 % 0 lf 1018,8 hPa 0,0 l/m 0 min 0 min 0 W/m 33,5 km/h (5 Bft) 95,65 %
26.01.2016 20:22 10,1 C 10,6 C 8,3 C 76 % 0 lf 1018,8 hPa 0,0 l/m 0 min 0 min 0 W/m 39,7 km/h (6 Bft) 95,74 %
26.01.2016 20:24 10,1 C 10,6 C 8,3 C 76 % 0 lf 1018,8 hPa 0,0 l/m 0 min 0 min 0 W/m 29,3 km/h (5 Bft) 93,62 %
26.01.2016 20:26 10,1 C 10,0 C 8,3 C 76 % 0 lf 1018,8 hPa 0,0 l/m 0 min 0 min 0 W/m 29,3 km/h (5 Bft) 95,74 %
26.01.2016 20:28 10,1 C 10,6 C 8,3 C 76 % 0 lf 1018,8 hPa 0,0 l/m 0 min 0 min 0 W/m 31,4 km/h (5 Bft) 95,74 %
26.01.2016 20:30 10,1 C 10,0 C 8,3 C 76 % 0 lf 1018,8 hPa 0,0 l/m 0 min 0 min 0 W/m 25,1 km/h (4 Bft) 93,62 %
26.01.2016 20:32 10,1 C 10,0 C 8,3 C 76 % 0 lf 1018,8 hPa 0,0 l/m 0 min 0 min 0 W/m 25,1 km/h (4 Bft) 95,74 %
26.01.2016 20:34 10,1 C 10,6 C 8,3 C 76 % 0 lf 1018,8 hPa 0,0 l/m 0 min 0 min 0 W/m 27,2 km/h (4 Bft) 95,74 %
26.01.2016 20:36 10,1 C 10,6 C 8,3 C 76 % 0 lf 1018,8 hPa 0,0 l/m 0 min 0 min 0 W/m 27,2 km/h (4 Bft) 92,11 %
26.01.2016 20:38 10,1 C 10,6 C 8,9 C 76 % 0 lf 1018,9 hPa 0,0 l/m 0 min 0 min 0 W/m 27,2 km/h (4 Bft) 95,74 %
26.01.2016 20:40 10,1 C 10,6 C 8,9 C 76 % 0 lf 1018,7 hPa 0,0 l/m 0 min 0 min 0 W/m 23,0 km/h (4 Bft) 97,87 %
26.01.2016 20:42 10,1 C 10,6 C 8,9 C 76 % 0 lf 1018,8 hPa 0,0 l/m 0 min 0 min 0 W/m 33,5 km/h (5 Bft) 97,87 %
26.01.2016 20:44 10,2 C 10,6 C 8,9 C 76 % 0 lf 1018,8 hPa 0,0 l/m 0 min 0 min 0 W/m 31,4 km/h (5 Bft) 97,96 %
26.01.2016 20:46 10,2 C 10,6 C 8,3 C 76 % 0 lf 1018,8 hPa 0,0 l/m 0 min 0 min 0 W/m 31,4 km/h (5 Bft) 95,65 %
26.01.2016 20:48 10,2 C 10,6 C 8,3 C 76 % 0 lf 1018,7 hPa 0,0 l/m 0 min 0 min 0 W/m 35,6 km/h (5 Bft) 95,74 %
26.01.2016 20:50 10,2 C 10,6 C 8,9 C 76 % 0 lf 1018,7 hPa 0,0 l/m 0 min 0 min 0 W/m 41,8 km/h (6 Bft) 95,74 %
26.01.2016 20:52 10,2 C 10,6 C 8,9 C 76 % 0 lf 1018,7 hPa 0,0 l/m 0 min 0 min 0 W/m 35,6 km/h (5 Bft) 97,87 %
26.01.2016 20:54 10,2 C 10,6 C 8,9 C 76 % 0 lf 1018,7 hPa 0,0 l/m 0 min 0 min 0 W/m 35,6 km/h (5 Bft) 95,74 %
26.01.2016 20:56 10,2 C 10,6 C 8,9 C 76 % 0 lf 1018,8 hPa 0,0 l/m 0 min 0 min 0 W/m 31,4 km/h (5 Bft) 97,83 %
26.01.2016 20:58 10,2 C 10,6 C 8,9 C 76 % 0 lf 1018,6 hPa 0,0 l/m 0 min 0 min 0 W/m 31,4 km/h (5 Bft) 97,87 %
26.01.2016 21:00 10,2 C 10,6 C 8,9 C 76 % 0 lf 1018,5 hPa 0,0 l/m 0 min 0 min 0 W/m 39,7 km/h (6 Bft) 97,87 %
26.01.2016 21:02 10,2 C 10,6 C 8,9 C 77 % 1 lf 1018,6 hPa 0,0 l/m 0 min 0 min 0 W/m 35,6 km/h (5 Bft) 93,62 %
26.01.2016 21:04 10,2 C 10,6 C 8,9 C 77 % 1 lf 1018,7 hPa 0,0 l/m 0 min 2 min 0 W/m 35,6 km/h (5 Bft) 95,74 %
26.01.2016 21:06 10,2 C 10,0 C 8,9 C 77 % 14 lf 1018,7 hPa 0,0 l/m 0 min 2 min 0 W/m 39,7 km/h (6 Bft) 93,02 %
26.01.2016 21:08 10,2 C 10,0 C 7,8 C 77 % 15 lf 1018,7 hPa 0,0 l/m 0 min 2 min 0 W/m 33,5 km/h (5 Bft) 95,92 %
26.01.2016 21:10 10,2 C 8,9 C 7,2 C 78 % 15 lf 1018,6 hPa 0,0 l/m 0 min 2 min 0 W/m 29,3 km/h (5 Bft) 97,87 %
26.01.2016 21:12 10,2 C 8,9 C 6,7 C 79 % 15 lf 1018,6 hPa 0,0 l/m 0 min 2 min 0 W/m 39,7 km/h (6 Bft) 97,92 %
26.01.2016 21:14 10,2 C 8,3 C 6,7 C 79 % 15 lf 1018,6 hPa 0,0 l/m 0 min 2 min 0 W/m 31,4 km/h (5 Bft) 97,87 %
26.01.2016 21:16 10,1 C 8,3 C 6,7 C 80 % 15 lf 1018,5 hPa 0,2 l/m 0 min 2 min 0 W/m 31,4 km/h (5 Bft) 97,87 %
26.01.2016 21:18 10,0 C 8,3 C 6,7 C 80 % 15 lf 1018,5 hPa 0,0 l/m 0 min 2 min 0 W/m 29,3 km/h (5 Bft) 95,74 %
26.01.2016 21:20 9,9 C 8,3 C 6,7 C 80 % 15 lf 1018,4 hPa 0,0 l/m 0 min 2 min 0 W/m 27,2 km/h (4 Bft) 95,65 %
26.01.2016 21:22 9,9 C 8,3 C 6,7 C 81 % 15 lf 1018,5 hPa 0,0 l/m 0 min 2 min 0 W/m 27,2 km/h (4 Bft) 95,74 %
26.01.2016 21:24 9,9 C 7,8 C 6,7 C 81 % 15 lf 1018,5 hPa 0,0 l/m 0 min 2 min 0 W/m 27,2 km/h (4 Bft) 95,35 %
26.01.2016 21:26 9,8 C 8,3 C 6,7 C 81 % 15 lf 1018,4 hPa 0,0 l/m 0 min 2 min 0 W/m 31,4 km/h (5 Bft) 95,74 %
26.01.2016 21:28 9,8 C 7,8 C 6,7 C 82 % 15 lf 1018,5 hPa 0,0 l/m 0 min 2 min 0 W/m 25,1 km/h (4 Bft) 93,62 %
26.01.2016 21:30 9,8 C 7,8 C 6,7 C 82 % 15 lf 1018,5 hPa 0,0 l/m 0 min 2 min 0 W/m 31,4 km/h (5 Bft) 97,87 %
26.01.2016 21:32 9,7 C 7,8 C 6,7 C 82 % 15 lf 1018,4 hPa 0,0 l/m 0 min 2 min 0 W/m 29,3 km/h (5 Bft) 100,00 %
26.01.2016 21:34 9,7 C 7,8 C 6,7 C 83 % 15 lf 1018,3 hPa 0,0 l/m 0 min 2 min 0 W/m 39,7 km/h (6 Bft) 100,00 %
26.01.2016 21:36 9,6 C 7,8 C 6,7 C 83 % 15 lf 1018,3 hPa 0,0 l/m 0 min 2 min 0 W/m 31,4 km/h (5 Bft) 95,74 %
26.01.2016 21:38 9,6 C 7,8 C 6,7 C 83 % 15 lf 1018,3 hPa 0,0 l/m 0 min 2 min 0 W/m 31,4 km/h (5 Bft) 100,00 %
26.01.2016 21:40 9,6 C 7,8 C 6,7 C 83 % 15 lf 1018,3 hPa 0,2 l/m 0 min 2 min 0 W/m 25,1 km/h (4 Bft) 100,00 %
26.01.2016 21:42 9,6 C 7,8 C 6,7 C 84 % 15 lf 1018,3 hPa 0,0 l/m 0 min 2 min 0 W/m 31,4 km/h (5 Bft) 100,00 %
26.01.2016 21:44 9,5 C 7,8 C 6,7 C 84 % 15 lf 1018,2 hPa 0,0 l/m 0 min 2 min 0 W/m 27,2 km/h (4 Bft) 91,84 %
26.01.2016 21:46 9,5 C 7,8 C 6,7 C 84 % 15 lf 1018,2 hPa 0,0 l/m 0 min 2 min 0 W/m 29,3 km/h (5 Bft) 100,00 %
26.01.2016 21:48 9,4 C 7,8 C 6,7 C 85 % 15 lf 1018,3 hPa 0,0 l/m 0 min 2 min 0 W/m 37,7 km/h (5 Bft) 97,92 %
26.01.2016 21:50 9,4 C 7,8 C 6,7 C 85 % 15 lf 1018,3 hPa 0,0 l/m 0 min 2 min 0 W/m 41,8 km/h (6 Bft) 100,00 %
26.01.2016 21:52 9,4 C 7,8 C 6,7 C 85 % 15 lf 1018,2 hPa 0,0 l/m 0 min 2 min 0 W/m 31,4 km/h (5 Bft) 100,00 %
26.01.2016 21:54 9,4 C 7,8 C 6,7 C 85 % 15 lf 1018,1 hPa 0,0 l/m 0 min 2 min 0 W/m 23,0 km/h (4 Bft) 97,87 %
26.01.2016 21:56 9,3 C 7,8 C 6,7 C 85 % 15 lf 1018,2 hPa 0,0 l/m 0 min 2 min 0 W/m 29,3 km/h (5 Bft) 100,00 %
26.01.2016 21:58 9,3 C 7,8 C 6,7 C 86 % 15 lf 1018,1 hPa 0,0 l/m 0 min 2 min 0 W/m 25,1 km/h (4 Bft) 97,87 %
26.01.2016 22:00 9,3 C 7,8 C 6,7 C 86 % 15 lf 1018,1 hPa 0,0 l/m 0 min 2 min 0 W/m 37,7 km/h (5 Bft) 97,87 %
26.01.2016 22:02 9,3 C 7,8 C 6,7 C 86 % 15 lf 1018,2 hPa 0,0 l/m 0 min 2 min 0 W/m 25,1 km/h (4 Bft) 98,00 %
26.01.2016 22:04 9,2 C 7,8 C 6,7 C 87 % 15 lf 1018,2 hPa 0,2 l/m 0 min 2 min 0 W/m 35,6 km/h (5 Bft) 97,14 %
26.01.2016 22:06 9,2 C 7,8 C 6,7 C 87 % 15 lf 1018,1 hPa 0,0 l/m 0 min 2 min 0 W/m 25,1 km/h (4 Bft) 94,55 %
26.01.2016 22:08 9,2 C 7,8 C 6,7 C 87 % 15 lf 1018,1 hPa 0,0 l/m 0 min 2 min 0 W/m 39,7 km/h (6 Bft) 97,96 %
26.01.2016 22:10 9,2 C 7,8 C 6,7 C 87 % 15 lf 1018,1 hPa 0,0 l/m 0 min 2 min 0 W/m 35,6 km/h (5 Bft) 93,62 %
26.01.2016 22:12 9,2 C 7,8 C 6,7 C 87 % 15 lf 1018,1 hPa 0,0 l/m 0 min 2 min 0 W/m 29,3 km/h (5 Bft) 93,62 %
26.01.2016 22:14 9,2 C 7,8 C 6,7 C 87 % 15 lf 1018,0 hPa 0,0 l/m 0 min 2 min 0 W/m 31,4 km/h (5 Bft) 95,83 %
26.01.2016 22:16 9,2 C 7,8 C 6,7 C 87 % 15 lf 1018,0 hPa 0,0 l/m 0 min 2 min 0 W/m 31,4 km/h (5 Bft) 91,49 %
26.01.2016 22:18 9,2 C 7,8 C 6,7 C 87 % 15 lf 1018,0 hPa 0,0 l/m 0 min 2 min 0 W/m 35,6 km/h (5 Bft) 93,48 %
26.01.2016 22:20 9,2 C 7,8 C 6,7 C 88 % 15 lf 1018,0 hPa 0,0 l/m 0 min 2 min 0 W/m 39,7 km/h (6 Bft) 91,49 %
26.01.2016 22:22 9,2 C 7,8 C 6,7 C 88 % 15 lf 1018,0 hPa 0,0 l/m 0 min 2 min 0 W/m 37,7 km/h (5 Bft) 95,74 %
26.01.2016 22:24 9,2 C 7,8 C 6,7 C 88 % 15 lf 1018,0 hPa 0,0 l/m 0 min 2 min 0 W/m 52,3 km/h (7 Bft) 94,29 %
26.01.2016 22:26 9,2 C 7,8 C 6,7 C 88 % 15 lf 1017,9 hPa 0,0 l/m 0 min 2 min 0 W/m 35,6 km/h (5 Bft) 93,62 %
26.01.2016 22:28 9,2 C 7,8 C 6,7 C 88 % 15 lf 1017,9 hPa 0,0 l/m 0 min 2 min 0 W/m 25,1 km/h (4 Bft) 93,62 %
26.01.2016 22:30 9,2 C 7,8 C 6,7 C 88 % 15 lf 1017,9 hPa 0,2 l/m 0 min 2 min 0 W/m 39,7 km/h (6 Bft) 97,87 %
26.01.2016 22:32 9,2 C 7,8 C 6,7 C 88 % 15 lf 1017,8 hPa 0,0 l/m 0 min 2 min 0 W/m 29,3 km/h (5 Bft) 95,74 %
26.01.2016 22:34 9,2 C 7,8 C 6,7 C 88 % 15 lf 1017,7 hPa 0,0 l/m 0 min 2 min 0 W/m 33,5 km/h (5 Bft) 98,15 %
26.01.2016 22:36 9,2 C 7,8 C 6,7 C 89 % 15 lf 1017,8 hPa 0,0 l/m 0 min 2 min 0 W/m 35,6 km/h (5 Bft) 96,00 %
26.01.2016 22:38 9,2 C 7,8 C 6,7 C 88 % 15 lf 1017,8 hPa 0,0 l/m 0 min 2 min 0 W/m 33,5 km/h (5 Bft) 95,74 %
26.01.2016 22:40 9,2 C 7,8 C 6,7 C 89 % 15 lf 1017,6 hPa 0,0 l/m 0 min 2 min 0 W/m 31,4 km/h (5 Bft) 93,62 %
26.01.2016 22:42 9,1 C 7,8 C 6,7 C 89 % 15 lf 1017,7 hPa 0,0 l/m 0 min 2 min 0 W/m 33,5 km/h (5 Bft) 93,48 %
26.01.2016 22:44 9,1 C 7,8 C 6,7 C 89 % 15 lf 1017,7 hPa 0,0 l/m 0 min 2 min 0 W/m 33,5 km/h (5 Bft) 93,75 %
26.01.2016 22:46 9,1 C 7,8 C 6,7 C 89 % 15 lf 1017,7 hPa 0,0 l/m 0 min 2 min 0 W/m 35,6 km/h (5 Bft) 93,62 %
26.01.2016 22:48 9,1 C 7,8 C 6,7 C 89 % 15 lf 1017,6 hPa 0,0 l/m 0 min 2 min 0 W/m 33,5 km/h (5 Bft) 93,62 %
26.01.2016 22:50 9,1 C 7,8 C 6,7 C 89 % 15 lf 1017,7 hPa 0,0 l/m 0 min 2 min 0 W/m 31,4 km/h (5 Bft) 95,74 %
26.01.2016 22:52 9,1 C 7,8 C 6,7 C 90 % 15 lf 1017,7 hPa 0,0 l/m 0 min 2 min 0 W/m 37,7 km/h (5 Bft) 95,65 %
26.01.2016 22:54 9,1 C 7,8 C 6,7 C 90 % 15 lf 1017,7 hPa 0,0 l/m 0 min 2 min 0 W/m 27,2 km/h (4 Bft) 94,44 %
26.01.2016 22:56 9,1 C 7,8 C 6,7 C 90 % 15 lf 1017,7 hPa 0,0 l/m 0 min 2 min 0 W/m 37,7 km/h (5 Bft) 93,48 %
26.01.2016 22:58 9,1 C 7,8 C 6,7 C 90 % 15 lf 1017,7 hPa 0,2 l/m 0 min 2 min 0 W/m 46,0 km/h (6 Bft) 95,74 %
26.01.2016 23:00 9,1 C 8,3 C 6,7 C 90 % 15 lf 1017,7 hPa 0,0 l/m 0 min 2 min 0 W/m 46,0 km/h (6 Bft) 95,74 %
26.01.2016 23:02 9,1 C 7,8 C 6,7 C 90 % 15 lf 1017,6 hPa 0,0 l/m 0 min 2 min 0 W/m 31,4 km/h (5 Bft) 91,49 %
26.01.2016 23:04 9,1 C 7,8 C 6,7 C 90 % 15 lf 1017,5 hPa 0,0 l/m 0 min 2 min 0 W/m 18,8 km/h (3 Bft) 96,36 %
26.01.2016 23:06 9,0 C 7,8 C 6,7 C 90 % 15 lf 1017,5 hPa 0,0 l/m 0 min 2 min 0 W/m 31,4 km/h (5 Bft) 91,84 %
26.01.2016 23:08 9,0 C 7,8 C 6,7 C 90 % 15 lf 1017,6 hPa 0,0 l/m 0 min 2 min 0 W/m 27,2 km/h (4 Bft) 93,75 %
26.01.2016 23:10 9,0 C 7,8 C 6,7 C 90 % 15 lf 1017,6 hPa 0,0 l/m 0 min 2 min 0 W/m 37,7 km/h (5 Bft) 93,62 %
26.01.2016 23:12 9,0 C 8,3 C 6,7 C 91 % 15 lf 1017,6 hPa 0,0 l/m 0 min 2 min 0 W/m 25,1 km/h (4 Bft) 94,29 %
26.01.2016 23:14 9,0 C 7,8 C 6,7 C 91 % 15 lf 1017,5 hPa 0,0 l/m 0 min 2 min 0 W/m 31,4 km/h (5 Bft) 95,74 %
26.01.2016 23:16 9,0 C 7,8 C 6,7 C 91 % 15 lf 1017,5 hPa 0,2 l/m 0 min 2 min 0 W/m 35,6 km/h (5 Bft) 95,74 %
26.01.2016 23:18 9,0 C 8,3 C 6,7 C 91 % 15 lf 1017,5 hPa 0,0 l/m 0 min 2 min 0 W/m 35,6 km/h (5 Bft) 91,49 %
26.01.2016 23:20 8,9 C 8,3 C 6,7 C 91 % 15 lf 1017,5 hPa 0,0 l/m 0 min 2 min 0 W/m 39,7 km/h (6 Bft) 100,00 %
26.01.2016 23:22 9,0 C 8,3 C 6,7 C 91 % 15 lf 1017,5 hPa 0,0 l/m 0 min 2 min 0 W/m 35,6 km/h (5 Bft) 93,62 %
26.01.2016 23:24 8,9 C 8,3 C 6,7 C 91 % 15 lf 1017,5 hPa 0,0 l/m 0 min 2 min 0 W/m 29,3 km/h (5 Bft) 98,11 %
26.01.2016 23:26 9,0 C 8,3 C 6,7 C 91 % 15 lf 1017,5 hPa 0,0 l/m 0 min 2 min 0 W/m 29,3 km/h (5 Bft) 97,87 %
26.01.2016 23:28 8,9 C 8,3 C 6,7 C 91 % 15 lf 1017,6 hPa 0,0 l/m 0 min 2 min 0 W/m 37,7 km/h (5 Bft) 95,74 %
26.01.2016 23:30 8,9 C 8,3 C 6,7 C 91 % 15 lf 1017,5 hPa 0,0 l/m 0 min 2 min 0 W/m 39,7 km/h (6 Bft) 100,00 %
26.01.2016 23:32 9,0 C 8,3 C 6,7 C 91 % 15 lf 1017,5 hPa 0,0 l/m 0 min 2 min 0 W/m 29,3 km/h (5 Bft) 100,00 %
26.01.2016 23:34 9,0 C 8,3 C 6,7 C 92 % 15 lf 1017,6 hPa 0,0 l/m 0 min 2 min 0 W/m 35,6 km/h (5 Bft) 97,87 %
26.01.2016 23:36 9,0 C 8,3 C 6,7 C 92 % 15 lf 1017,5 hPa 0,0 l/m 0 min 2 min 0 W/m 33,5 km/h (5 Bft) 96,00 %
26.01.2016 23:38 9,0 C 8,3 C 6,7 C 92 % 15 lf 1017,4 hPa 0,0 l/m 0 min 2 min 0 W/m 39,7 km/h (6 Bft) 97,87 %
26.01.2016 23:40 9,0 C 8,3 C 6,7 C 92 % 15 lf 1017,5 hPa 0,0 l/m 0 min 0 min 0 W/m 29,3 km/h (5 Bft) 95,74 %
26.01.2016 23:42 9,0 C 8,3 C 6,7 C 92 % 15 lf 1017,5 hPa 0,0 l/m 0 min 2 min 0 W/m 37,7 km/h (5 Bft) 97,83 %
26.01.2016 23:44 9,0 C 8,3 C 6,7 C 92 % 15 lf 1017,4 hPa 0,0 l/m 0 min 0 min 0 W/m 41,8 km/h (6 Bft) 93,62 %
26.01.2016 23:46 9,1 C 8,3 C 6,7 C 92 % 15 lf 1017,5 hPa 0,0 l/m 0 min 2 min 0 W/m 35,6 km/h (5 Bft) 95,74 %
26.01.2016 23:48 9,1 C 8,3 C 6,7 C 91 % 15 lf 1017,5 hPa 0,0 l/m 0 min 0 min 0 W/m 39,7 km/h (6 Bft) 95,74 %
26.01.2016 23:50 9,1 C 8,3 C 6,7 C 91 % 15 lf 1017,5 hPa 0,0 l/m 0 min 0 min 0 W/m 48,1 km/h (6 Bft) 91,49 %
26.01.2016 23:52 9,2 C 8,3 C 6,7 C 91 % 15 lf 1017,4 hPa 0,0 l/m 0 min 2 min 0 W/m 31,4 km/h (5 Bft) 95,65 %
26.01.2016 23:54 9,2 C 8,9 C 7,2 C 91 % 15 lf 1017,5 hPa 0,0 l/m 0 min 0 min 0 W/m 33,5 km/h (5 Bft) 95,92 %
26.01.2016 23:56 9,2 C 8,9 C 7,2 C 91 % 15 lf 1017,4 hPa 0,0 l/m 0 min 0 min 0 W/m 37,7 km/h (5 Bft) 91,49 %
26.01.2016 23:58 9,2 C 8,9 C 7,2 C 91 % 15 lf 1017,4 hPa 0,0 l/m 0 min 0 min 0 W/m 37,7 km/h (5 Bft) 95,74 %
_ Min-Zeit 23:18 21:24 21:12 19:38 00:00 23:38 - - - - 04:28 03:24
Minimum _ 8,9 C 7,8 C 6,7 C 76 % 0 lf 1017,4 hPa - - - - 8,4 km/h (2 Bft) 87,23 %
_ Max-Zeit 14:14 14:00 14:04 10:52 21:08 02:18 21:16 13:52 06:58 14:00 22:24 00:02
Maximum _ 11,7 C 15,0 C 11,1 C 95 % 15 lf 1024,2 hPa 0,2 l/m 2 min 2 min 274 W/m 52,3 km/h
SW (7 Bft)
100,00 %
Durchschnitt _ 10,3 C 10,4 C 8,6 C 87 % 2 lf 1021,2 hPa #1,2 l/m #28 min. #3:16 h 55 W/m 23,1 km/h (4 Bft) 96,16 %
© 2016 W. Hausmann